GFSGBSN_prec_precacc_054.txt.gz
Total_Precipitation_Accumulation
0.02 0.01 0.01 0.00 0.00 0.00 0.00 0.00 0.00 0.00 0.00 0.00 0.00 0.00 0.00 0.00 0.00 0.00 0.00 0.00 0.00 0.00 0.00 0.00 0.00 0.00 0.00 0.00 0.00 0.00 0.00 0.00 0.00 0.00 0.00 0.00 0.00 0.00 0.00 0.00 0.00 0.00 0.00 0.00 0.00 0.01 0.00
0.02 0.01 0.01 0.00 0.00 0.00 0.00 0.00 0.00 0.00 0.00 0.00 0.00 0.00 0.00 0.00 0.00 0.00 0.00 0.00 0.00 0.00 0.00 0.00 0.00 0.00 0.00 0.00 0.00 0.00 0.00 0.00 0.00 0.00 0.00 0.00 0.00 0.00 0.00 0.00 0.00 0.00 0.00 0.00 0.00 0.00 0.00
0.02 0.01 0.01 0.00 0.00 0.00 0.00 0.00 0.00 0.00 0.00 0.00 0.00 0.00 0.00 0.00 0.00 0.00 0.00 0.00 0.00 0.00 0.00 0.00 0.00 0.00 0.00 0.00 0.00 0.00 0.00 0.00 0.00 0.00 0.00 0.00 0.00 0.00 0.00 0.00 0.00 0.00 0.00 0.00 0.00 0.00 0.00
0.02 0.02 0.01 0.00 0.00 0.00 0.00 0.00 0.00 0.00 0.00 0.00 0.00 0.00 0.00 0.00 0.00 0.00 0.00 0.00 0.00 0.00 0.00 0.00 0.00 0.00 0.00 0.00 0.00 0.00 0.00 0.00 0.00 0.00 0.00 0.00 0.00 0.00 0.00 0.00 0.00 0.00 0.00 0.00 0.00 0.00 0.00
0.03 0.02 0.01 0.01 0.00 0.00 0.00 0.00 0.00 0.00 0.00 0.00 0.00 0.00 0.00 0.00 0.00 0.00 0.00 0.00 0.00 0.00 0.00 0.00 0.00 0.00 0.00 0.00 0.00 0.00 0.00 0.00 0.00 0.00 0.00 0.00 0.00 0.00 0.00 0.00 0.00 0.00 0.00 0.00 0.00 0.00 0.00
0.04 0.02 0.01 0.00 0.00 0.00 0.00 0.00 0.00 0.00 0.00 0.00 0.00 0.00 0.00 0.00 0.00 0.00 0.00 0.00 0.00 0.00 0.00 0.00 0.00 0.01 0.00 0.00 0.00 0.00 0.00 0.01 0.01 0.00 0.00 0.00 0.00 0.00 0.00 0.00 0.00 0.00 0.00 0.00 0.00 0.00 0.00
0.03 0.02 0.01 0.00 0.00 0.00 0.00 0.00 0.00 0.00 0.00 0.00 0.00 0.00 0.00 0.00 0.00 0.00 0.00 0.00 0.00 0.00 0.00 0.00 0.00 0.00 0.00 0.00 0.00 0.00 0.00 0.00 0.00 0.00 0.01 0.00 0.00 0.00 0.00 0.00 0.00 0.00 0.00 0.00 0.00 0.00 0.00
0.02 0.02 0.01 0.00 0.00 0.00 0.00 0.00 0.00 0.00 0.00 0.00 0.00 0.00 0.00 0.00 0.00 0.00 0.00 0.00 0.00 0.00 0.00 0.00 0.00 0.00 0.00 0.00 0.00 0.00 0.00 0.00 0.00 0.00 0.01 0.00 0.00 0.00 0.00 0.00 0.00 0.00 0.00 0.00 0.00 0.00 0.00
0.10 0.06 0.03 0.01 0.00 0.00 0.00 0.00 0.00 0.00 0.00 0.00 0.00 0.00 0.00 0.00 0.00 0.00 0.00 0.00 0.00 0.00 0.00 0.00 0.00 0.00 0.00 0.00 0.00 0.00 0.00 0.00 0.00 0.00 0.00 0.01 0.01 0.00 0.00 0.00 0.00 0.00 0.00 0.00 0.00 0.00 0.00
0.10 0.08 0.08 0.06 0.03 0.01 0.00 0.00 0.00 0.00 0.00 0.00 0.00 0.00 0.00 0.00 0.00 0.00 0.00 0.00 0.00 0.00 0.00 0.00 0.00 0.00 0.00 0.00 0.00 0.00 0.00 0.00 0.00 0.00 0.00 0.02 0.00 0.00 0.00 0.00 0.00 0.01 0.00 0.00 0.00 0.00 0.00
0.05 0.04 0.04 0.03 0.04 0.03 0.01 0.00 0.00 0.00 0.00 0.00 0.00 0.00 0.00 0.00 0.00 0.00 0.00 0.00 0.00 0.00 0.01 0.00 0.00 0.00 0.00 0.00 0.00 0.00 0.00 0.00 0.00 0.00 0.00 0.01 0.00 0.00 0.00 0.00 0.00 0.01 0.00 0.00 0.00 0.00 0.01
0.08 0.04 0.04 0.03 0.03 0.03 0.02 0.01 0.00 0.00 0.00 0.00 0.00 0.00 0.00 0.00 0.00 0.00 0.00 0.00 0.00 0.04 0.02 0.00 0.00 0.00 0.00 0.00 0.00 0.00 0.00 0.00 0.00 0.00 0.00 0.01 0.01 0.01 0.01 0.00 0.00 0.00 0.00 0.00 0.00 0.00 0.00
0.18 0.09 0.06 0.04 0.02 0.02 0.01 0.01 0.01 0.01 0.01 0.01 0.01 0.01 0.00 0.00 0.00 0.00 0.00 0.02 0.02 0.03 0.00 0.00 0.00 0.00 0.00 0.00 0.00 0.00 0.00 0.00 0.00 0.00 0.00 0.00 0.00 0.01 0.01 0.00 0.00 0.00 0.00 0.00 0.08 0.04 0.01
0.28 0.18 0.10 0.06 0.05 0.02 0.01 0.01 0.01 0.02 0.02 0.05 0.02 0.02 0.00 0.00 0.00 0.00 0.01 0.06 0.01 0.00 0.00 0.00 0.00 0.00 0.00 0.00 0.00 0.00 0.00 0.00 0.00 0.00 0.00 0.00 0.00 0.00 0.00 0.00 0.02 0.01 0.00 0.02 0.03 0.03 0.03
0.41 0.33 0.23 0.11 0.07 0.05 0.03 0.02 0.02 0.02 0.04 0.06 0.08 0.03 0.00 0.00 0.01 0.01 0.03 0.04 0.00 0.00 0.00 0.00 0.00 0.00 0.00 0.00 0.00 0.00 0.00 0.00 0.00 0.00 0.00 0.00 0.01 0.01 0.00 0.00 0.00 0.01 0.02 0.00 0.00 0.00 0.00
0.44 0.45 0.34 0.25 0.18 0.08 0.06 0.04 0.04 0.03 0.08 0.06 0.04 0.05 0.01 0.00 0.01 0.01 0.04 0.01 0.00 0.00 0.00 0.00 0.00 0.00 0.00 0.00 0.00 0.00 0.00 0.00 0.00 0.00 0.00 0.02 0.06 0.03 0.00 0.00 0.00 0.00 0.00 0.00 0.00 0.00 0.00
0.45 0.45 0.39 0.30 0.30 0.24 0.13 0.09 0.09 0.07 0.08 0.10 0.06 0.06 0.00 0.00 0.03 0.03 0.02 0.00 0.00 0.00 0.00 0.00 0.00 0.00 0.00 0.00 0.00 0.00 0.00 0.00 0.00 0.00 0.00 0.00 0.03 0.08 0.00 0.00 0.00 0.00 0.00 0.00 0.00 0.00 0.04
0.47 0.45 0.44 0.34 0.25 0.28 0.32 0.17 0.15 0.14 0.12 0.22 0.08 0.04 0.08 0.05 0.03 0.02 0.01 0.00 0.00 0.00 0.00 0.00 0.00 0.00 0.00 0.00 0.00 0.00 0.00 0.00 0.00 0.00 0.00 0.00 0.00 0.01 0.01 0.01 0.01 0.00 0.00 0.01 0.01 0.02 0.01
0.50 0.43 0.44 0.38 0.28 0.22 0.31 0.36 0.23 0.19 0.17 0.14 0.08 0.17 0.37 0.06 0.02 0.01 0.00 0.00 0.00 0.00 0.00 0.00 0.00 0.00 0.00 0.00 0.00 0.00 0.00 0.00 0.00 0.00 0.00 0.00 0.00 0.00 0.00 0.02 0.01 0.00 0.00 0.00 0.00 0.00 0.00
0.49 0.45 0.37 0.45 0.32 0.27 0.23 0.33 0.32 0.18 0.16 0.16 0.09 0.23 0.38 0.13 0.00 0.00 0.00 0.00 0.00 0.00 0.00 0.00 0.00 0.00 0.00 0.00 0.00 0.00 0.00 0.00 0.00 0.00 0.00 0.00 0.00 0.00 0.00 0.00 0.00 0.00 0.00 0.00 0.00 0.00 0.00
0.49 0.46 0.40 0.37 0.38 0.38 0.27 0.23 0.31 0.22 0.17 0.34 0.18 0.03 0.07 0.05 0.00 0.00 0.00 0.00 0.00 0.00 0.00 0.00 0.00 0.00 0.00 0.00 0.00 0.00 0.00 0.00 0.00 0.00 0.00 0.00 0.00 0.00 0.00 0.00 0.00 0.00 0.00 0.00 0.00 0.00 0.00
0.44 0.43 0.42 0.31 0.35 0.39 0.40 0.27 0.28 0.34 0.26 0.59 0.17 0.01 0.02 0.00 0.00 0.00 0.00 0.00 0.00 0.00 0.00 0.00 0.00 0.00 0.00 0.00 0.00 0.00 0.00 0.00 0.00 0.00 0.00 0.00 0.00 0.00 0.00 0.00 0.00 0.00 0.00 0.00 0.00 0.00 0.00
0.39 0.41 0.42 0.33 0.31 0.30 0.39 0.34 0.31 0.46 0.48 0.46 0.10 0.03 0.05 0.02 0.01 0.01 0.00 0.00 0.00 0.00 0.00 0.00 0.00 0.00 0.00 0.00 0.00 0.00 0.00 0.00 0.00 0.00 0.00 0.00 0.00 0.00 0.00 0.00 0.01 0.01 0.00 0.00 0.00 0.00 0.00
0.31 0.35 0.36 0.30 0.29 0.26 0.31 0.34 0.34 0.51 0.40 0.09 0.05 0.07 0.15 0.08 0.01 0.00 0.00 0.00 0.00 0.00 0.00 0.00 0.00 0.00 0.00 0.00 0.00 0.00 0.00 0.00 0.01 0.01 0.00 0.00 0.00 0.00 0.00 0.01 0.04 0.00 0.00 0.00 0.00 0.00 0.00
0.26 0.23 0.31 0.27 0.24 0.23 0.23 0.28 0.30 0.37 0.23 0.09 0.13 0.16 0.27 0.11 0.01 0.00 0.00 0.00 0.00 0.01 0.01 0.01 0.00 0.00 0.00 0.00 0.02 0.04 0.03 0.05 0.05 0.03 0.01 0.01 0.01 0.00 0.00 0.01 0.01 0.00 0.00 0.00 0.00 0.00 0.00
0.22 0.17 0.25 0.26 0.22 0.17 0.16 0.19 0.18 0.17 0.12 0.16 0.20 0.36 0.47 0.20 0.02 0.00 0.00 0.00 0.00 0.01 0.05 0.04 0.03 0.03 0.03 0.01 0.03 0.02 0.02 0.00 0.01 0.03 0.02 0.00 0.00 0.01 0.00 0.02 0.02 0.00 0.00 0.00 0.00 0.00 0.00
0.15 0.12 0.19 0.26 0.21 0.17 0.12 0.13 0.10 0.07 0.10 0.17 0.19 0.46 0.54 0.34 0.07 0.01 0.00 0.00 0.00 0.00 0.13 0.03 0.10 0.14 0.15 0.13 0.09 0.02 0.00 0.00 0.00 0.00 0.00 0.00 0.00 0.00 0.00 0.03 0.00 0.00 0.00 0.01 0.10 0.10 0.02
0.07 0.09 0.20 0.21 0.20 0.19 0.11 0.10 0.06 0.04 0.08 0.15 0.22 0.41 0.67 0.37 0.09 0.05 0.02 0.00 0.00 0.01 0.13 0.14 0.03 0.08 0.18 0.25 0.12 0.05 0.01 0.00 0.00 0.00 0.00 0.00 0.00 0.01 0.02 0.05 0.01 0.00 0.01 0.06 0.05 0.02 0.04
0.05 0.10 0.19 0.18 0.16 0.16 0.11 0.10 0.07 0.03 0.07 0.17 0.29 0.41 0.53 0.74 0.21 0.04 0.02 0.00 0.00 0.01 0.03 0.13 0.04 0.01 0.07 0.12 0.11 0.08 0.03 0.00 0.00 0.00 0.00 0.00 0.00 0.00 0.02 0.01 0.00 0.00 0.01 0.01 0.02 0.03 0.01

GFSGBSN_prec_precacc_057.txt.gz
Total_Precipitation_Accumulation
0.02 0.01 0.01 0.00 0.00 0.00 0.00 0.00 0.00 0.00 0.00 0.00 0.00 0.00 0.00 0.00 0.00 0.00 0.00 0.00 0.00 0.00 0.00 0.00 0.00 0.00 0.00 0.00 0.00 0.00 0.00 0.00 0.00 0.00 0.00 0.00 0.00 0.00 0.00 0.00 0.00 0.00 0.00 0.00 0.00 0.01 0.00
0.03 0.01 0.01 0.00 0.00 0.00 0.00 0.00 0.00 0.00 0.00 0.00 0.00 0.00 0.00 0.00 0.00 0.00 0.00 0.00 0.00 0.00 0.00 0.00 0.00 0.00 0.00 0.00 0.00 0.00 0.00 0.00 0.00 0.00 0.00 0.00 0.00 0.00 0.00 0.00 0.00 0.00 0.00 0.00 0.00 0.00 0.00
0.02 0.02 0.01 0.00 0.00 0.00 0.00 0.00 0.00 0.00 0.00 0.00 0.00 0.00 0.00 0.00 0.00 0.00 0.00 0.00 0.00 0.00 0.00 0.00 0.00 0.00 0.00 0.00 0.00 0.00 0.00 0.00 0.00 0.00 0.00 0.00 0.00 0.00 0.00 0.00 0.00 0.00 0.00 0.00 0.00 0.00 0.00
0.03 0.02 0.01 0.00 0.00 0.00 0.00 0.00 0.00 0.00 0.00 0.00 0.00 0.00 0.00 0.00 0.00 0.00 0.00 0.00 0.00 0.00 0.00 0.00 0.00 0.00 0.00 0.00 0.00 0.00 0.00 0.00 0.00 0.00 0.00 0.00 0.00 0.00 0.00 0.00 0.00 0.00 0.00 0.00 0.00 0.00 0.00
0.04 0.02 0.01 0.01 0.00 0.00 0.00 0.00 0.00 0.00 0.00 0.00 0.00 0.00 0.00 0.00 0.00 0.00 0.00 0.00 0.00 0.00 0.00 0.00 0.00 0.00 0.00 0.00 0.00 0.00 0.00 0.00 0.00 0.00 0.00 0.00 0.00 0.00 0.00 0.01 0.00 0.00 0.00 0.00 0.00 0.00 0.00
0.05 0.03 0.01 0.01 0.00 0.00 0.00 0.00 0.00 0.00 0.00 0.00 0.00 0.00 0.00 0.00 0.00 0.00 0.00 0.00 0.00 0.00 0.00 0.00 0.00 0.01 0.00 0.00 0.00 0.00 0.00 0.01 0.01 0.00 0.00 0.00 0.00 0.00 0.00 0.00 0.00 0.00 0.00 0.00 0.00 0.00 0.00
0.04 0.03 0.01 0.01 0.01 0.00 0.00 0.00 0.00 0.00 0.00 0.00 0.00 0.00 0.00 0.00 0.00 0.00 0.00 0.00 0.00 0.00 0.00 0.00 0.00 0.00 0.00 0.00 0.00 0.00 0.00 0.00 0.00 0.00 0.02 0.00 0.00 0.00 0.00 0.00 0.00 0.00 0.00 0.00 0.00 0.00 0.00
0.03 0.02 0.01 0.01 0.01 0.00 0.00 0.00 0.00 0.00 0.00 0.00 0.00 0.00 0.00 0.00 0.00 0.00 0.00 0.00 0.00 0.00 0.00 0.00 0.00 0.00 0.00 0.00 0.00 0.00 0.00 0.00 0.00 0.00 0.01 0.00 0.00 0.00 0.00 0.00 0.00 0.00 0.00 0.00 0.00 0.00 0.00
0.12 0.07 0.03 0.02 0.01 0.01 0.00 0.00 0.00 0.00 0.00 0.00 0.00 0.00 0.00 0.00 0.00 0.00 0.00 0.00 0.00 0.00 0.00 0.00 0.00 0.00 0.00 0.00 0.00 0.00 0.00 0.00 0.00 0.00 0.00 0.01 0.01 0.00 0.00 0.00 0.00 0.00 0.00 0.00 0.00 0.00 0.00
0.12 0.10 0.09 0.06 0.04 0.02 0.01 0.01 0.00 0.00 0.00 0.00 0.00 0.00 0.00 0.00 0.00 0.00 0.00 0.00 0.00 0.00 0.00 0.00 0.00 0.00 0.00 0.00 0.00 0.00 0.00 0.00 0.00 0.00 0.00 0.02 0.00 0.00 0.00 0.00 0.00 0.01 0.00 0.00 0.00 0.00 0.00
0.08 0.07 0.06 0.04 0.05 0.04 0.02 0.01 0.01 0.00 0.00 0.00 0.00 0.00 0.01 0.00 0.00 0.00 0.00 0.00 0.00 0.00 0.01 0.00 0.00 0.00 0.00 0.00 0.00 0.00 0.00 0.00 0.00 0.00 0.00 0.01 0.00 0.00 0.00 0.00 0.00 0.01 0.00 0.00 0.00 0.00 0.01
0.09 0.06 0.06 0.05 0.03 0.03 0.03 0.02 0.01 0.00 0.00 0.00 0.00 0.00 0.02 0.01 0.00 0.00 0.00 0.00 0.00 0.04 0.02 0.00 0.00 0.00 0.00 0.00 0.00 0.00 0.00 0.00 0.00 0.00 0.00 0.01 0.01 0.01 0.01 0.00 0.00 0.00 0.00 0.00 0.00 0.00 0.00
0.18 0.11 0.08 0.06 0.04 0.02 0.02 0.02 0.03 0.01 0.01 0.01 0.01 0.01 0.01 0.00 0.00 0.00 0.00 0.02 0.02 0.03 0.00 0.00 0.00 0.00 0.00 0.00 0.00 0.00 0.00 0.00 0.00 0.00 0.00 0.00 0.00 0.01 0.01 0.00 0.00 0.00 0.00 0.00 0.08 0.04 0.01
0.28 0.19 0.12 0.09 0.07 0.03 0.02 0.02 0.02 0.03 0.03 0.05 0.02 0.02 0.02 0.00 0.00 0.00 0.01 0.07 0.01 0.00 0.00 0.00 0.00 0.00 0.00 0.00 0.00 0.00 0.00 0.00 0.00 0.00 0.00 0.00 0.00 0.00 0.00 0.00 0.02 0.01 0.00 0.02 0.03 0.03 0.03
0.41 0.33 0.23 0.12 0.11 0.08 0.04 0.03 0.03 0.03 0.05 0.07 0.08 0.04 0.03 0.00 0.01 0.01 0.03 0.04 0.00 0.00 0.00 0.00 0.00 0.00 0.00 0.00 0.00 0.00 0.00 0.00 0.00 0.00 0.00 0.00 0.01 0.01 0.00 0.00 0.00 0.01 0.02 0.00 0.00 0.00 0.00
0.44 0.45 0.34 0.26 0.19 0.11 0.09 0.07 0.05 0.05 0.10 0.07 0.05 0.07 0.02 0.00 0.01 0.01 0.05 0.01 0.00 0.00 0.00 0.00 0.00 0.00 0.00 0.00 0.00 0.00 0.00 0.00 0.00 0.00 0.00 0.02 0.06 0.03 0.00 0.00 0.00 0.00 0.00 0.00 0.00 0.00 0.00
0.45 0.45 0.39 0.33 0.32 0.26 0.15 0.11 0.12 0.10 0.11 0.12 0.07 0.09 0.01 0.00 0.06 0.03 0.03 0.00 0.00 0.00 0.00 0.00 0.00 0.00 0.00 0.00 0.00 0.00 0.00 0.00 0.00 0.00 0.00 0.00 0.03 0.08 0.00 0.00 0.00 0.00 0.00 0.00 0.00 0.00 0.04
0.47 0.45 0.45 0.35 0.30 0.32 0.34 0.19 0.17 0.20 0.16 0.27 0.10 0.06 0.08 0.06 0.11 0.03 0.01 0.00 0.00 0.00 0.00 0.00 0.00 0.00 0.00 0.00 0.00 0.00 0.00 0.00 0.00 0.00 0.00 0.00 0.00 0.01 0.01 0.01 0.01 0.00 0.00 0.01 0.01 0.02 0.01
0.51 0.43 0.45 0.39 0.30 0.28 0.35 0.37 0.24 0.23 0.23 0.15 0.10 0.19 0.38 0.07 0.06 0.02 0.00 0.00 0.00 0.00 0.00 0.00 0.00 0.00 0.00 0.00 0.00 0.00 0.00 0.00 0.00 0.00 0.00 0.00 0.00 0.00 0.00 0.02 0.01 0.00 0.00 0.00 0.00 0.00 0.00
0.53 0.47 0.38 0.46 0.33 0.29 0.28 0.35 0.34 0.21 0.23 0.17 0.11 0.27 0.44 0.16 0.00 0.00 0.00 0.00 0.00 0.00 0.00 0.00 0.00 0.00 0.00 0.00 0.00 0.00 0.00 0.00 0.00 0.00 0.00 0.00 0.00 0.00 0.00 0.00 0.00 0.00 0.00 0.00 0.00 0.00 0.00
0.54 0.47 0.40 0.38 0.40 0.39 0.28 0.25 0.34 0.27 0.31 0.39 0.22 0.05 0.07 0.06 0.01 0.00 0.00 0.00 0.00 0.00 0.00 0.00 0.00 0.00 0.00 0.00 0.00 0.00 0.00 0.00 0.00 0.00 0.00 0.00 0.00 0.00 0.00 0.00 0.00 0.00 0.00 0.00 0.00 0.00 0.00
0.51 0.47 0.43 0.32 0.36 0.40 0.40 0.27 0.29 0.42 0.56 0.70 0.20 0.03 0.03 0.00 0.00 0.00 0.00 0.00 0.00 0.00 0.00 0.00 0.00 0.00 0.00 0.00 0.00 0.00 0.00 0.00 0.00 0.00 0.00 0.00 0.00 0.00 0.00 0.00 0.00 0.00 0.00 0.00 0.00 0.00 0.00
0.46 0.44 0.44 0.34 0.33 0.31 0.39 0.34 0.32 0.54 0.91 0.77 0.11 0.03 0.05 0.02 0.01 0.01 0.00 0.00 0.00 0.00 0.00 0.00 0.00 0.00 0.00 0.00 0.00 0.00 0.00 0.00 0.00 0.00 0.00 0.00 0.00 0.00 0.00 0.00 0.01 0.01 0.00 0.00 0.00 0.00 0.00
0.38 0.39 0.37 0.31 0.30 0.27 0.31 0.34 0.34 0.56 0.80 0.35 0.06 0.07 0.17 0.09 0.01 0.00 0.00 0.00 0.00 0.00 0.00 0.00 0.00 0.00 0.00 0.00 0.00 0.00 0.00 0.00 0.01 0.01 0.00 0.00 0.00 0.00 0.00 0.01 0.04 0.00 0.00 0.00 0.00 0.00 0.00
0.32 0.26 0.32 0.28 0.25 0.24 0.23 0.29 0.30 0.42 0.48 0.29 0.14 0.16 0.30 0.12 0.01 0.01 0.00 0.00 0.00 0.01 0.01 0.01 0.00 0.00 0.00 0.01 0.02 0.04 0.03 0.05 0.05 0.03 0.01 0.01 0.01 0.00 0.00 0.01 0.01 0.00 0.00 0.00 0.00 0.00 0.00
0.27 0.19 0.26 0.27 0.23 0.18 0.16 0.22 0.19 0.21 0.30 0.30 0.21 0.38 0.52 0.23 0.02 0.01 0.00 0.00 0.00 0.01 0.05 0.04 0.03 0.03 0.03 0.02 0.03 0.02 0.02 0.00 0.01 0.03 0.02 0.01 0.01 0.01 0.00 0.02 0.02 0.00 0.00 0.00 0.00 0.00 0.00
0.20 0.14 0.20 0.27 0.22 0.19 0.14 0.15 0.12 0.12 0.21 0.28 0.21 0.58 0.62 0.39 0.11 0.02 0.01 0.00 0.00 0.00 0.13 0.03 0.10 0.14 0.16 0.15 0.11 0.02 0.00 0.00 0.00 0.00 0.01 0.02 0.02 0.01 0.01 0.03 0.00 0.00 0.00 0.01 0.10 0.10 0.02
0.10 0.10 0.21 0.21 0.21 0.21 0.13 0.11 0.08 0.08 0.16 0.23 0.24 0.59 0.74 0.42 0.11 0.07 0.03 0.00 0.00 0.01 0.13 0.14 0.03 0.08 0.18 0.27 0.14 0.06 0.01 0.00 0.00 0.00 0.00 0.00 0.01 0.01 0.02 0.05 0.01 0.00 0.01 0.06 0.05 0.02 0.04
0.06 0.11 0.19 0.19 0.17 0.18 0.12 0.11 0.09 0.07 0.15 0.23 0.31 0.59 0.65 0.76 0.22 0.06 0.04 0.00 0.00 0.01 0.03 0.13 0.04 0.01 0.07 0.12 0.12 0.09 0.05 0.01 0.00 0.00 0.00 0.00 0.00 0.00 0.02 0.01 0.00 0.00 0.01 0.01 0.02 0.03 0.01

GFSGBSN_prec_precacc_063.txt.gz
Total_Precipitation_Accumulation
0.03 0.02 0.02 0.01 0.01 0.00 0.01 0.00 0.01 0.01 0.01 0.01 0.00 0.00 0.00 0.00 0.00 0.00 0.00 0.00 0.00 0.00 0.00 0.00 0.00 0.00 0.00 0.00 0.00 0.00 0.00 0.00 0.00 0.00 0.00 0.00 0.00 0.00 0.00 0.00 0.00 0.00 0.00 0.00 0.00 0.01 0.00
0.04 0.03 0.02 0.01 0.01 0.00 0.00 0.00 0.00 0.00 0.00 0.00 0.00 0.00 0.00 0.00 0.00 0.00 0.00 0.00 0.00 0.00 0.00 0.00 0.00 0.00 0.00 0.00 0.00 0.00 0.00 0.00 0.00 0.00 0.00 0.00 0.00 0.00 0.00 0.00 0.00 0.00 0.00 0.00 0.00 0.00 0.00
0.04 0.03 0.02 0.01 0.01 0.01 0.00 0.00 0.00 0.00 0.00 0.00 0.00 0.00 0.00 0.01 0.00 0.00 0.00 0.00 0.00 0.00 0.00 0.00 0.00 0.00 0.00 0.00 0.00 0.00 0.00 0.00 0.00 0.00 0.00 0.00 0.00 0.00 0.00 0.00 0.00 0.00 0.00 0.00 0.00 0.00 0.00
0.04 0.04 0.03 0.02 0.01 0.01 0.01 0.01 0.01 0.00 0.00 0.00 0.00 0.00 0.00 0.00 0.00 0.00 0.00 0.00 0.00 0.00 0.00 0.00 0.00 0.00 0.00 0.00 0.00 0.00 0.00 0.00 0.00 0.00 0.00 0.00 0.00 0.00 0.00 0.00 0.00 0.00 0.00 0.00 0.00 0.00 0.00
0.05 0.04 0.03 0.02 0.01 0.01 0.01 0.01 0.01 0.00 0.00 0.00 0.00 0.00 0.00 0.00 0.00 0.00 0.00 0.00 0.00 0.00 0.00 0.00 0.00 0.00 0.00 0.00 0.00 0.00 0.00 0.00 0.00 0.00 0.00 0.00 0.00 0.00 0.00 0.01 0.00 0.00 0.00 0.00 0.00 0.00 0.00
0.06 0.04 0.03 0.02 0.02 0.02 0.01 0.01 0.01 0.00 0.00 0.00 0.00 0.00 0.00 0.00 0.01 0.01 0.00 0.00 0.00 0.00 0.00 0.00 0.00 0.01 0.00 0.00 0.00 0.00 0.00 0.01 0.01 0.00 0.00 0.00 0.00 0.00 0.00 0.00 0.00 0.00 0.00 0.00 0.00 0.00 0.00
0.05 0.04 0.03 0.03 0.02 0.02 0.01 0.01 0.01 0.01 0.01 0.00 0.00 0.00 0.00 0.01 0.01 0.02 0.00 0.00 0.00 0.00 0.00 0.00 0.00 0.00 0.00 0.00 0.00 0.00 0.00 0.00 0.00 0.00 0.02 0.00 0.00 0.00 0.00 0.00 0.00 0.00 0.00 0.00 0.00 0.00 0.00
0.04 0.03 0.03 0.03 0.02 0.02 0.02 0.02 0.01 0.01 0.01 0.00 0.00 0.00 0.00 0.01 0.03 0.02 0.00 0.00 0.00 0.00 0.00 0.00 0.00 0.00 0.00 0.00 0.00 0.00 0.00 0.00 0.00 0.00 0.01 0.00 0.00 0.00 0.00 0.00 0.00 0.00 0.00 0.00 0.00 0.00 0.00
0.12 0.07 0.05 0.03 0.02 0.02 0.02 0.02 0.02 0.01 0.01 0.01 0.00 0.00 0.00 0.02 0.04 0.01 0.00 0.00 0.00 0.00 0.00 0.00 0.00 0.00 0.00 0.00 0.00 0.00 0.00 0.00 0.00 0.00 0.00 0.01 0.01 0.00 0.00 0.00 0.00 0.00 0.00 0.00 0.00 0.00 0.00
0.13 0.11 0.09 0.08 0.05 0.03 0.02 0.02 0.03 0.02 0.01 0.01 0.00 0.00 0.01 0.04 0.02 0.00 0.00 0.00 0.00 0.00 0.00 0.00 0.00 0.00 0.00 0.00 0.00 0.00 0.00 0.00 0.00 0.00 0.00 0.02 0.00 0.00 0.00 0.00 0.00 0.01 0.00 0.00 0.00 0.00 0.00
0.08 0.07 0.06 0.06 0.06 0.05 0.03 0.03 0.03 0.02 0.02 0.01 0.00 0.00 0.01 0.04 0.00 0.00 0.00 0.00 0.00 0.00 0.01 0.00 0.00 0.00 0.00 0.00 0.00 0.00 0.00 0.00 0.00 0.00 0.00 0.01 0.00 0.00 0.00 0.00 0.00 0.01 0.00 0.00 0.00 0.00 0.01
0.10 0.07 0.07 0.06 0.05 0.05 0.04 0.03 0.03 0.02 0.02 0.02 0.01 0.01 0.02 0.04 0.01 0.00 0.00 0.00 0.00 0.04 0.02 0.00 0.00 0.00 0.00 0.00 0.00 0.00 0.00 0.00 0.00 0.00 0.00 0.01 0.01 0.01 0.01 0.00 0.00 0.00 0.00 0.00 0.00 0.00 0.00
0.20 0.12 0.09 0.07 0.05 0.04 0.03 0.03 0.04 0.04 0.03 0.03 0.03 0.02 0.02 0.01 0.00 0.00 0.00 0.02 0.03 0.03 0.00 0.00 0.00 0.00 0.00 0.00 0.00 0.00 0.00 0.00 0.00 0.00 0.00 0.00 0.00 0.01 0.01 0.00 0.00 0.00 0.00 0.00 0.08 0.04 0.01
0.31 0.20 0.13 0.10 0.07 0.04 0.03 0.03 0.04 0.05 0.06 0.07 0.04 0.03 0.03 0.01 0.00 0.00 0.01 0.10 0.02 0.00 0.00 0.00 0.00 0.00 0.00 0.00 0.00 0.00 0.00 0.00 0.00 0.00 0.00 0.00 0.00 0.00 0.00 0.00 0.02 0.01 0.00 0.02 0.03 0.03 0.03
0.45 0.36 0.25 0.14 0.12 0.09 0.05 0.04 0.04 0.06 0.08 0.10 0.11 0.05 0.04 0.01 0.01 0.01 0.05 0.07 0.00 0.00 0.00 0.00 0.00 0.00 0.00 0.00 0.00 0.00 0.00 0.00 0.00 0.00 0.00 0.00 0.01 0.01 0.00 0.00 0.00 0.01 0.02 0.00 0.00 0.00 0.00
0.49 0.49 0.37 0.28 0.20 0.12 0.11 0.09 0.08 0.08 0.14 0.13 0.10 0.10 0.03 0.00 0.02 0.11 0.09 0.02 0.00 0.00 0.00 0.00 0.00 0.00 0.00 0.00 0.00 0.00 0.00 0.00 0.00 0.00 0.00 0.02 0.06 0.03 0.00 0.00 0.00 0.00 0.00 0.00 0.00 0.00 0.00
0.50 0.50 0.44 0.37 0.35 0.27 0.16 0.13 0.16 0.16 0.16 0.21 0.14 0.14 0.01 0.01 0.15 0.24 0.09 0.01 0.00 0.00 0.00 0.00 0.00 0.00 0.00 0.00 0.00 0.00 0.00 0.00 0.00 0.00 0.00 0.00 0.03 0.08 0.00 0.00 0.00 0.00 0.00 0.00 0.00 0.00 0.04
0.53 0.50 0.50 0.40 0.34 0.35 0.35 0.20 0.21 0.26 0.23 0.38 0.19 0.12 0.08 0.06 0.18 0.11 0.03 0.00 0.00 0.00 0.00 0.00 0.00 0.00 0.00 0.00 0.00 0.00 0.00 0.00 0.00 0.00 0.00 0.00 0.00 0.01 0.01 0.01 0.01 0.00 0.00 0.01 0.01 0.02 0.01
0.58 0.50 0.51 0.45 0.37 0.34 0.39 0.38 0.25 0.27 0.30 0.24 0.24 0.25 0.46 0.09 0.07 0.02 0.01 0.00 0.00 0.00 0.00 0.00 0.00 0.00 0.00 0.00 0.00 0.00 0.00 0.00 0.00 0.00 0.00 0.00 0.00 0.00 0.00 0.02 0.01 0.00 0.00 0.00 0.00 0.00 0.00
0.69 0.59 0.48 0.54 0.42 0.38 0.35 0.39 0.35 0.23 0.30 0.28 0.28 0.39 0.65 0.27 0.00 0.00 0.00 0.00 0.00 0.00 0.00 0.00 0.00 0.00 0.00 0.00 0.00 0.00 0.00 0.00 0.00 0.00 0.00 0.00 0.00 0.00 0.00 0.00 0.00 0.00 0.00 0.00 0.00 0.00 0.00
0.75 0.73 0.63 0.54 0.53 0.51 0.38 0.33 0.36 0.28 0.37 0.67 0.48 0.16 0.13 0.12 0.01 0.00 0.00 0.00 0.00 0.00 0.00 0.00 0.00 0.00 0.00 0.00 0.00 0.00 0.00 0.00 0.00 0.00 0.00 0.00 0.00 0.00 0.00 0.00 0.00 0.00 0.00 0.00 0.00 0.00 0.00
0.64 0.66 0.69 0.62 0.60 0.58 0.53 0.35 0.33 0.43 0.62 1.21 0.55 0.09 0.04 0.01 0.00 0.01 0.01 0.00 0.00 0.00 0.00 0.00 0.00 0.00 0.00 0.00 0.00 0.00 0.00 0.00 0.00 0.00 0.00 0.00 0.00 0.00 0.00 0.00 0.00 0.00 0.00 0.00 0.00 0.00 0.00
0.61 0.62 0.67 0.63 0.66 0.58 0.56 0.42 0.35 0.55 0.99 1.43 0.45 0.06 0.07 0.03 0.01 0.01 0.00 0.00 0.00 0.00 0.00 0.00 0.00 0.00 0.00 0.00 0.00 0.00 0.00 0.00 0.00 0.00 0.00 0.00 0.00 0.00 0.00 0.00 0.01 0.01 0.00 0.00 0.00 0.00 0.00
0.53 0.58 0.57 0.58 0.63 0.57 0.52 0.42 0.38 0.57 0.84 0.66 0.19 0.09 0.22 0.10 0.02 0.00 0.00 0.00 0.00 0.00 0.00 0.00 0.00 0.00 0.00 0.00 0.00 0.00 0.00 0.00 0.01 0.01 0.00 0.00 0.00 0.00 0.00 0.01 0.04 0.00 0.00 0.00 0.00 0.00 0.00
0.49 0.46 0.55 0.51 0.58 0.53 0.43 0.38 0.34 0.43 0.50 0.41 0.16 0.17 0.39 0.16 0.02 0.01 0.00 0.00 0.00 0.01 0.01 0.01 0.00 0.00 0.00 0.01 0.03 0.04 0.03 0.05 0.05 0.03 0.01 0.01 0.01 0.00 0.00 0.01 0.01 0.00 0.00 0.00 0.00 0.00 0.00
0.46 0.40 0.49 0.50 0.50 0.48 0.33 0.31 0.22 0.22 0.32 0.38 0.24 0.39 0.60 0.34 0.04 0.01 0.01 0.00 0.00 0.01 0.05 0.04 0.03 0.03 0.03 0.02 0.04 0.03 0.02 0.01 0.02 0.03 0.02 0.01 0.01 0.01 0.00 0.02 0.02 0.00 0.00 0.00 0.00 0.00 0.00
0.41 0.35 0.41 0.46 0.44 0.42 0.26 0.23 0.15 0.13 0.22 0.35 0.31 0.63 0.73 0.56 0.16 0.03 0.01 0.00 0.00 0.00 0.13 0.03 0.10 0.14 0.16 0.15 0.11 0.03 0.01 0.01 0.01 0.00 0.01 0.02 0.02 0.02 0.01 0.03 0.00 0.00 0.00 0.01 0.10 0.10 0.02
0.34 0.31 0.39 0.38 0.40 0.38 0.24 0.21 0.11 0.10 0.18 0.26 0.33 0.73 0.87 0.57 0.17 0.17 0.07 0.00 0.00 0.01 0.13 0.14 0.03 0.08 0.18 0.27 0.14 0.07 0.02 0.00 0.00 0.01 0.01 0.00 0.01 0.01 0.02 0.05 0.01 0.00 0.01 0.06 0.05 0.02 0.04
0.30 0.30 0.36 0.35 0.35 0.32 0.24 0.19 0.12 0.11 0.19 0.25 0.36 0.76 0.80 0.94 0.30 0.13 0.10 0.02 0.00 0.01 0.03 0.13 0.04 0.01 0.07 0.12 0.12 0.09 0.05 0.02 0.00 0.01 0.01 0.01 0.01 0.00 0.02 0.01 0.00 0.00 0.01 0.01 0.02 0.03 0.01

GFSGBSN_prec_precacc_069.txt.gz
Total_Precipitation_Accumulation
0.04 0.04 0.03 0.02 0.02 0.01 0.01 0.01 0.01 0.01 0.01 0.01 0.00 0.00 0.00 0.00 0.00 0.00 0.00 0.00 0.00 0.00 0.00 0.00 0.00 0.00 0.00 0.00 0.00 0.00 0.00 0.00 0.00 0.00 0.00 0.00 0.00 0.00 0.00 0.00 0.00 0.00 0.00 0.00 0.00 0.01 0.00
0.05 0.04 0.03 0.02 0.02 0.01 0.01 0.01 0.01 0.01 0.00 0.00 0.00 0.00 0.00 0.00 0.00 0.00 0.00 0.00 0.00 0.00 0.00 0.00 0.00 0.00 0.00 0.00 0.00 0.00 0.00 0.00 0.00 0.00 0.00 0.00 0.00 0.00 0.00 0.00 0.00 0.00 0.00 0.00 0.00 0.00 0.00
0.04 0.04 0.03 0.02 0.02 0.02 0.01 0.01 0.01 0.00 0.01 0.00 0.00 0.00 0.00 0.01 0.01 0.01 0.01 0.00 0.00 0.00 0.00 0.00 0.00 0.00 0.00 0.00 0.00 0.00 0.00 0.00 0.00 0.00 0.00 0.00 0.00 0.00 0.00 0.00 0.00 0.00 0.00 0.00 0.02 0.00 0.00
0.04 0.04 0.03 0.02 0.02 0.02 0.02 0.01 0.01 0.01 0.00 0.00 0.00 0.00 0.00 0.00 0.01 0.00 0.00 0.00 0.00 0.00 0.00 0.00 0.00 0.00 0.00 0.00 0.00 0.00 0.00 0.00 0.00 0.00 0.00 0.00 0.00 0.00 0.00 0.00 0.00 0.00 0.00 0.00 0.04 0.00 0.00
0.05 0.04 0.03 0.02 0.02 0.02 0.02 0.02 0.01 0.01 0.00 0.00 0.00 0.00 0.00 0.00 0.00 0.01 0.00 0.00 0.00 0.00 0.00 0.00 0.00 0.00 0.00 0.00 0.00 0.00 0.00 0.00 0.00 0.00 0.00 0.00 0.00 0.00 0.00 0.01 0.00 0.00 0.00 0.00 0.00 0.00 0.00
0.07 0.05 0.03 0.02 0.02 0.02 0.02 0.02 0.02 0.01 0.01 0.00 0.00 0.00 0.00 0.00 0.01 0.01 0.00 0.00 0.00 0.00 0.00 0.00 0.00 0.01 0.00 0.00 0.00 0.00 0.00 0.01 0.01 0.00 0.00 0.00 0.00 0.00 0.00 0.00 0.00 0.00 0.00 0.00 0.00 0.00 0.00
0.06 0.05 0.04 0.03 0.02 0.02 0.02 0.02 0.03 0.02 0.01 0.01 0.00 0.00 0.00 0.01 0.01 0.02 0.00 0.00 0.00 0.00 0.00 0.00 0.00 0.00 0.00 0.00 0.00 0.00 0.00 0.00 0.00 0.00 0.02 0.00 0.00 0.00 0.00 0.00 0.00 0.00 0.00 0.00 0.00 0.00 0.00
0.04 0.04 0.03 0.03 0.02 0.02 0.02 0.02 0.02 0.02 0.02 0.01 0.01 0.00 0.01 0.01 0.03 0.02 0.00 0.00 0.00 0.00 0.00 0.00 0.00 0.00 0.00 0.00 0.00 0.00 0.00 0.00 0.00 0.00 0.01 0.00 0.00 0.00 0.00 0.00 0.00 0.00 0.00 0.00 0.00 0.00 0.00
0.12 0.08 0.05 0.03 0.02 0.02 0.02 0.03 0.03 0.02 0.02 0.01 0.01 0.01 0.01 0.02 0.04 0.01 0.01 0.00 0.00 0.00 0.00 0.00 0.00 0.00 0.00 0.00 0.00 0.00 0.00 0.00 0.00 0.00 0.00 0.01 0.01 0.00 0.00 0.00 0.00 0.00 0.00 0.00 0.00 0.00 0.00
0.13 0.11 0.10 0.08 0.05 0.03 0.02 0.02 0.03 0.03 0.02 0.02 0.01 0.00 0.01 0.04 0.02 0.00 0.00 0.00 0.00 0.00 0.00 0.00 0.00 0.00 0.00 0.00 0.00 0.00 0.00 0.00 0.00 0.00 0.00 0.02 0.00 0.00 0.00 0.00 0.00 0.01 0.00 0.00 0.00 0.00 0.01
0.08 0.07 0.06 0.06 0.07 0.06 0.03 0.03 0.03 0.03 0.03 0.02 0.01 0.00 0.01 0.04 0.01 0.00 0.00 0.00 0.00 0.00 0.01 0.00 0.00 0.00 0.00 0.00 0.00 0.00 0.00 0.00 0.00 0.00 0.00 0.01 0.00 0.00 0.00 0.00 0.00 0.01 0.00 0.00 0.00 0.00 0.01
0.10 0.08 0.07 0.07 0.06 0.06 0.05 0.04 0.03 0.03 0.02 0.03 0.02 0.01 0.03 0.05 0.02 0.00 0.00 0.00 0.01 0.04 0.02 0.00 0.00 0.00 0.00 0.00 0.00 0.00 0.00 0.00 0.00 0.00 0.00 0.01 0.01 0.01 0.01 0.00 0.00 0.00 0.00 0.00 0.00 0.00 0.00
0.20 0.12 0.10 0.08 0.06 0.05 0.04 0.05 0.05 0.05 0.04 0.04 0.03 0.02 0.04 0.02 0.01 0.00 0.01 0.05 0.05 0.03 0.00 0.00 0.00 0.00 0.00 0.00 0.00 0.00 0.00 0.00 0.00 0.00 0.00 0.00 0.00 0.01 0.01 0.00 0.00 0.00 0.00 0.01 0.08 0.04 0.01
0.33 0.22 0.14 0.11 0.08 0.05 0.04 0.05 0.05 0.06 0.07 0.08 0.05 0.05 0.06 0.03 0.00 0.02 0.07 0.14 0.03 0.00 0.00 0.00 0.00 0.00 0.00 0.00 0.00 0.00 0.00 0.00 0.00 0.00 0.00 0.00 0.00 0.00 0.00 0.00 0.02 0.01 0.00 0.02 0.04 0.03 0.03
0.49 0.40 0.28 0.16 0.14 0.11 0.08 0.07 0.06 0.06 0.09 0.12 0.15 0.10 0.09 0.03 0.02 0.04 0.19 0.14 0.00 0.00 0.00 0.00 0.00 0.00 0.00 0.00 0.00 0.00 0.00 0.00 0.00 0.00 0.00 0.00 0.01 0.01 0.00 0.00 0.00 0.01 0.02 0.00 0.00 0.00 0.00
0.54 0.53 0.41 0.31 0.23 0.14 0.13 0.12 0.11 0.11 0.16 0.14 0.16 0.15 0.05 0.01 0.06 0.22 0.34 0.06 0.00 0.00 0.00 0.00 0.00 0.00 0.00 0.00 0.00 0.00 0.00 0.00 0.00 0.00 0.00 0.02 0.06 0.03 0.00 0.00 0.00 0.00 0.00 0.00 0.00 0.00 0.01
0.55 0.55 0.48 0.41 0.38 0.30 0.19 0.17 0.20 0.21 0.20 0.25 0.22 0.27 0.03 0.03 0.28 0.42 0.24 0.02 0.00 0.00 0.00 0.00 0.00 0.00 0.00 0.00 0.00 0.00 0.00 0.00 0.00 0.00 0.00 0.00 0.03 0.08 0.00 0.00 0.00 0.00 0.00 0.00 0.00 0.00 0.04
0.56 0.54 0.55 0.44 0.38 0.39 0.40 0.24 0.26 0.31 0.27 0.49 0.34 0.26 0.12 0.13 0.27 0.19 0.05 0.00 0.00 0.00 0.00 0.00 0.00 0.00 0.00 0.00 0.00 0.00 0.00 0.00 0.00 0.00 0.00 0.00 0.00 0.01 0.01 0.01 0.01 0.00 0.00 0.01 0.01 0.02 0.01
0.60 0.53 0.55 0.50 0.42 0.39 0.45 0.46 0.32 0.33 0.40 0.42 0.43 0.35 0.60 0.18 0.10 0.05 0.01 0.00 0.00 0.00 0.00 0.00 0.00 0.00 0.00 0.00 0.00 0.00 0.00 0.00 0.00 0.00 0.00 0.00 0.00 0.00 0.00 0.02 0.01 0.00 0.00 0.00 0.00 0.00 0.00
0.75 0.62 0.51 0.59 0.48 0.45 0.44 0.52 0.51 0.41 0.47 0.47 0.48 0.55 0.92 0.40 0.01 0.00 0.00 0.01 0.00 0.00 0.00 0.00 0.00 0.00 0.00 0.00 0.00 0.00 0.00 0.00 0.00 0.00 0.00 0.00 0.00 0.00 0.00 0.00 0.00 0.00 0.00 0.00 0.00 0.00 0.00
0.79 0.78 0.69 0.60 0.60 0.59 0.50 0.51 0.61 0.59 0.69 1.03 0.81 0.25 0.26 0.20 0.02 0.00 0.00 0.00 0.00 0.00 0.00 0.00 0.00 0.00 0.00 0.00 0.00 0.00 0.00 0.00 0.00 0.00 0.00 0.00 0.00 0.00 0.00 0.00 0.00 0.00 0.00 0.00 0.00 0.00 0.00
0.66 0.68 0.70 0.64 0.68 0.70 0.69 0.62 0.64 0.81 1.04 1.72 0.84 0.11 0.05 0.02 0.00 0.01 0.01 0.00 0.00 0.00 0.00 0.00 0.00 0.00 0.00 0.00 0.00 0.00 0.00 0.00 0.00 0.00 0.00 0.00 0.00 0.00 0.00 0.00 0.00 0.00 0.00 0.00 0.00 0.00 0.00
0.64 0.65 0.69 0.65 0.71 0.70 0.78 0.73 0.78 1.06 1.56 2.19 0.63 0.06 0.08 0.04 0.03 0.02 0.01 0.00 0.00 0.00 0.00 0.00 0.00 0.00 0.00 0.01 0.00 0.00 0.00 0.00 0.00 0.00 0.00 0.00 0.00 0.00 0.00 0.00 0.01 0.01 0.00 0.00 0.00 0.00 0.00
0.56 0.61 0.60 0.60 0.67 0.71 0.74 0.78 0.83 1.19 1.44 1.12 0.28 0.10 0.26 0.13 0.06 0.01 0.00 0.00 0.00 0.00 0.00 0.00 0.00 0.00 0.00 0.01 0.00 0.01 0.00 0.00 0.01 0.01 0.00 0.00 0.00 0.00 0.00 0.01 0.04 0.00 0.00 0.00 0.00 0.00 0.00
0.56 0.53 0.59 0.55 0.59 0.61 0.73 0.73 0.82 1.01 0.97 0.55 0.17 0.18 0.42 0.20 0.04 0.01 0.00 0.00 0.00 0.01 0.01 0.01 0.00 0.00 0.00 0.01 0.03 0.08 0.07 0.06 0.05 0.03 0.01 0.01 0.01 0.00 0.01 0.01 0.01 0.00 0.00 0.00 0.00 0.00 0.00
0.52 0.47 0.57 0.56 0.53 0.52 0.61 0.70 0.60 0.67 0.78 0.52 0.26 0.39 0.64 0.37 0.06 0.02 0.01 0.00 0.00 0.02 0.06 0.04 0.03 0.03 0.03 0.02 0.05 0.05 0.09 0.04 0.03 0.04 0.02 0.01 0.01 0.02 0.00 0.02 0.02 0.00 0.00 0.00 0.00 0.00 0.00
0.46 0.42 0.48 0.55 0.50 0.50 0.48 0.59 0.47 0.46 0.63 0.53 0.36 0.63 0.76 0.60 0.18 0.07 0.05 0.02 0.00 0.01 0.14 0.04 0.12 0.18 0.16 0.16 0.12 0.03 0.02 0.02 0.04 0.05 0.02 0.02 0.02 0.02 0.02 0.03 0.00 0.00 0.00 0.01 0.10 0.10 0.02
0.44 0.39 0.46 0.44 0.46 0.48 0.40 0.53 0.42 0.36 0.49 0.47 0.41 0.73 0.89 0.61 0.21 0.26 0.12 0.05 0.01 0.03 0.16 0.15 0.08 0.12 0.21 0.28 0.15 0.07 0.02 0.00 0.01 0.03 0.05 0.03 0.03 0.02 0.03 0.06 0.02 0.00 0.01 0.06 0.05 0.02 0.04
0.42 0.38 0.44 0.41 0.40 0.45 0.39 0.46 0.40 0.32 0.48 0.43 0.43 0.79 0.83 1.01 0.38 0.21 0.22 0.08 0.02 0.01 0.03 0.15 0.05 0.01 0.07 0.12 0.12 0.10 0.06 0.02 0.00 0.01 0.01 0.03 0.03 0.04 0.03 0.02 0.00 0.00 0.01 0.01 0.02 0.03 0.01

GFSGBSN_prec_precacc_072.txt.gz
Total_Precipitation_Accumulation
0.04 0.04 0.03 0.03 0.02 0.01 0.01 0.01 0.01 0.01 0.01 0.01 0.00 0.00 0.00 0.00 0.00 0.00 0.00 0.00 0.00 0.00 0.00 0.00 0.00 0.00 0.00 0.00 0.00 0.00 0.00 0.00 0.00 0.00 0.00 0.00 0.00 0.00 0.00 0.00 0.00 0.00 0.00 0.00 0.00 0.01 0.00
0.05 0.04 0.03 0.02 0.02 0.01 0.01 0.01 0.01 0.01 0.00 0.00 0.00 0.00 0.00 0.00 0.00 0.00 0.00 0.00 0.00 0.00 0.00 0.00 0.00 0.00 0.00 0.00 0.00 0.00 0.00 0.00 0.00 0.00 0.00 0.00 0.00 0.00 0.00 0.00 0.00 0.00 0.00 0.00 0.00 0.00 0.00
0.04 0.04 0.03 0.02 0.02 0.02 0.01 0.01 0.01 0.01 0.01 0.01 0.00 0.00 0.00 0.01 0.01 0.01 0.01 0.00 0.00 0.00 0.00 0.00 0.00 0.00 0.00 0.00 0.00 0.00 0.00 0.00 0.00 0.00 0.00 0.00 0.00 0.00 0.00 0.00 0.00 0.00 0.00 0.00 0.04 0.02 0.00
0.05 0.04 0.03 0.02 0.02 0.02 0.02 0.01 0.01 0.01 0.01 0.00 0.00 0.00 0.00 0.00 0.01 0.00 0.00 0.00 0.00 0.00 0.00 0.00 0.00 0.00 0.00 0.00 0.00 0.00 0.00 0.00 0.00 0.00 0.00 0.00 0.00 0.00 0.00 0.00 0.00 0.00 0.00 0.00 0.05 0.01 0.00
0.06 0.04 0.04 0.03 0.02 0.02 0.02 0.02 0.01 0.01 0.01 0.01 0.00 0.00 0.00 0.00 0.00 0.01 0.00 0.00 0.00 0.00 0.00 0.00 0.00 0.00 0.00 0.00 0.00 0.00 0.00 0.00 0.00 0.00 0.00 0.00 0.00 0.00 0.00 0.01 0.00 0.00 0.00 0.00 0.00 0.00 0.00
0.07 0.05 0.04 0.03 0.03 0.02 0.02 0.02 0.02 0.01 0.01 0.01 0.00 0.00 0.00 0.00 0.01 0.01 0.00 0.00 0.00 0.00 0.00 0.00 0.00 0.01 0.00 0.00 0.00 0.00 0.00 0.01 0.01 0.00 0.00 0.00 0.00 0.00 0.00 0.00 0.00 0.00 0.00 0.00 0.00 0.00 0.00
0.06 0.05 0.04 0.03 0.03 0.02 0.02 0.02 0.03 0.02 0.01 0.01 0.01 0.00 0.00 0.01 0.01 0.02 0.00 0.00 0.00 0.00 0.00 0.00 0.00 0.00 0.00 0.00 0.00 0.00 0.00 0.00 0.00 0.00 0.02 0.00 0.00 0.00 0.00 0.00 0.00 0.00 0.00 0.00 0.00 0.00 0.00
0.04 0.04 0.03 0.03 0.02 0.02 0.02 0.03 0.02 0.02 0.02 0.01 0.01 0.01 0.01 0.01 0.03 0.02 0.00 0.00 0.00 0.00 0.00 0.00 0.00 0.00 0.00 0.00 0.00 0.00 0.00 0.00 0.00 0.00 0.01 0.00 0.00 0.00 0.00 0.00 0.00 0.00 0.00 0.00 0.00 0.00 0.00
0.12 0.08 0.05 0.03 0.02 0.02 0.02 0.03 0.03 0.03 0.02 0.01 0.01 0.01 0.01 0.02 0.04 0.01 0.01 0.00 0.00 0.00 0.00 0.00 0.00 0.00 0.00 0.00 0.00 0.00 0.00 0.00 0.00 0.00 0.00 0.01 0.01 0.00 0.00 0.00 0.00 0.00 0.00 0.00 0.00 0.00 0.00
0.13 0.11 0.10 0.08 0.05 0.03 0.02 0.03 0.03 0.03 0.02 0.02 0.01 0.00 0.01 0.04 0.02 0.00 0.00 0.00 0.00 0.00 0.00 0.00 0.00 0.00 0.00 0.00 0.00 0.00 0.00 0.00 0.00 0.00 0.00 0.02 0.00 0.00 0.00 0.00 0.00 0.01 0.00 0.00 0.00 0.00 0.02
0.08 0.07 0.06 0.06 0.07 0.06 0.03 0.03 0.03 0.03 0.03 0.02 0.01 0.00 0.01 0.04 0.01 0.00 0.00 0.00 0.00 0.01 0.01 0.00 0.00 0.00 0.00 0.00 0.00 0.00 0.00 0.00 0.00 0.00 0.00 0.01 0.00 0.00 0.00 0.00 0.00 0.01 0.00 0.00 0.00 0.00 0.01
0.10 0.08 0.07 0.07 0.06 0.06 0.06 0.04 0.03 0.03 0.03 0.03 0.02 0.01 0.03 0.05 0.02 0.00 0.01 0.01 0.04 0.05 0.02 0.00 0.00 0.00 0.00 0.00 0.00 0.00 0.00 0.00 0.00 0.00 0.00 0.01 0.01 0.01 0.01 0.00 0.00 0.00 0.00 0.00 0.00 0.00 0.00
0.20 0.12 0.10 0.08 0.06 0.05 0.05 0.05 0.06 0.06 0.05 0.05 0.04 0.02 0.04 0.02 0.01 0.01 0.02 0.09 0.09 0.03 0.00 0.00 0.00 0.00 0.00 0.00 0.00 0.00 0.00 0.00 0.00 0.00 0.00 0.00 0.00 0.01 0.01 0.00 0.00 0.00 0.00 0.01 0.10 0.04 0.02
0.33 0.22 0.15 0.11 0.08 0.05 0.04 0.05 0.05 0.07 0.08 0.09 0.06 0.06 0.06 0.03 0.00 0.02 0.09 0.23 0.05 0.00 0.00 0.00 0.00 0.00 0.00 0.00 0.00 0.00 0.00 0.00 0.00 0.00 0.00 0.00 0.00 0.00 0.00 0.00 0.02 0.01 0.00 0.04 0.07 0.04 0.04
0.50 0.40 0.28 0.16 0.14 0.11 0.08 0.07 0.07 0.07 0.10 0.13 0.17 0.12 0.10 0.03 0.02 0.05 0.26 0.23 0.02 0.00 0.00 0.00 0.00 0.00 0.00 0.00 0.00 0.00 0.00 0.00 0.00 0.00 0.00 0.00 0.01 0.01 0.00 0.00 0.00 0.01 0.02 0.00 0.00 0.00 0.00
0.55 0.54 0.42 0.32 0.24 0.15 0.14 0.12 0.12 0.13 0.19 0.18 0.19 0.18 0.07 0.02 0.07 0.26 0.44 0.12 0.00 0.00 0.00 0.00 0.00 0.00 0.00 0.00 0.00 0.00 0.00 0.00 0.00 0.00 0.00 0.02 0.06 0.03 0.00 0.00 0.00 0.00 0.00 0.00 0.00 0.00 0.01
0.56 0.56 0.50 0.42 0.39 0.31 0.19 0.17 0.21 0.23 0.23 0.29 0.28 0.36 0.06 0.04 0.33 0.48 0.30 0.04 0.00 0.00 0.00 0.00 0.00 0.00 0.00 0.00 0.00 0.00 0.00 0.00 0.00 0.00 0.00 0.00 0.03 0.08 0.00 0.00 0.00 0.00 0.00 0.00 0.00 0.00 0.04
0.57 0.55 0.56 0.45 0.39 0.40 0.41 0.25 0.27 0.33 0.31 0.61 0.48 0.39 0.14 0.15 0.31 0.21 0.06 0.00 0.00 0.00 0.00 0.00 0.00 0.00 0.00 0.00 0.00 0.00 0.00 0.00 0.00 0.00 0.00 0.00 0.00 0.01 0.01 0.01 0.01 0.00 0.00 0.01 0.01 0.02 0.01
0.61 0.54 0.56 0.51 0.43 0.40 0.46 0.47 0.33 0.36 0.49 0.64 0.68 0.48 0.64 0.21 0.11 0.06 0.01 0.00 0.00 0.00 0.00 0.00 0.00 0.00 0.00 0.00 0.00 0.00 0.00 0.00 0.00 0.00 0.00 0.00 0.00 0.00 0.00 0.02 0.01 0.00 0.00 0.00 0.00 0.00 0.00
0.76 0.63 0.52 0.60 0.49 0.46 0.45 0.53 0.53 0.45 0.58 0.76 0.81 0.73 1.01 0.46 0.02 0.00 0.01 0.01 0.00 0.00 0.00 0.00 0.00 0.00 0.01 0.00 0.00 0.00 0.00 0.00 0.00 0.00 0.00 0.00 0.00 0.00 0.00 0.00 0.00 0.00 0.00 0.00 0.00 0.00 0.00
0.81 0.79 0.70 0.62 0.62 0.62 0.52 0.53 0.63 0.63 0.81 1.41 1.20 0.33 0.29 0.22 0.03 0.01 0.00 0.00 0.00 0.00 0.00 0.00 0.00 0.02 0.02 0.01 0.00 0.00 0.00 0.00 0.00 0.00 0.00 0.00 0.00 0.00 0.00 0.00 0.00 0.00 0.00 0.00 0.00 0.00 0.00
0.68 0.70 0.73 0.67 0.70 0.73 0.72 0.65 0.67 0.85 1.22 2.15 1.15 0.13 0.05 0.02 0.01 0.02 0.02 0.00 0.00 0.00 0.00 0.00 0.00 0.00 0.02 0.02 0.00 0.01 0.00 0.00 0.00 0.00 0.00 0.00 0.00 0.00 0.00 0.00 0.00 0.00 0.00 0.00 0.00 0.00 0.00
0.65 0.65 0.70 0.66 0.73 0.73 0.82 0.79 0.82 1.10 1.82 2.83 0.90 0.07 0.09 0.05 0.04 0.03 0.01 0.00 0.00 0.00 0.00 0.00 0.00 0.00 0.02 0.03 0.04 0.05 0.01 0.00 0.00 0.00 0.00 0.00 0.00 0.00 0.00 0.00 0.01 0.01 0.00 0.00 0.00 0.00 0.00
0.57 0.62 0.61 0.62 0.68 0.72 0.76 0.84 0.91 1.24 1.64 1.56 0.39 0.10 0.30 0.17 0.08 0.01 0.00 0.00 0.00 0.00 0.00 0.00 0.00 0.00 0.00 0.01 0.04 0.08 0.02 0.00 0.01 0.01 0.00 0.00 0.00 0.00 0.01 0.01 0.04 0.00 0.00 0.00 0.00 0.00 0.00
0.57 0.54 0.60 0.56 0.60 0.62 0.74 0.74 0.91 1.15 1.13 0.84 0.22 0.19 0.43 0.22 0.05 0.02 0.00 0.00 0.00 0.01 0.01 0.01 0.00 0.00 0.00 0.03 0.09 0.12 0.11 0.07 0.05 0.03 0.01 0.01 0.02 0.03 0.02 0.02 0.01 0.00 0.00 0.00 0.00 0.00 0.00
0.53 0.49 0.59 0.58 0.54 0.52 0.62 0.71 0.64 0.96 1.10 0.82 0.38 0.40 0.65 0.39 0.06 0.02 0.02 0.00 0.00 0.02 0.06 0.04 0.03 0.03 0.03 0.06 0.15 0.12 0.11 0.06 0.05 0.05 0.03 0.01 0.01 0.06 0.03 0.03 0.02 0.00 0.00 0.00 0.00 0.00 0.00
0.49 0.45 0.51 0.58 0.52 0.51 0.50 0.60 0.48 0.56 1.13 0.99 0.55 0.65 0.78 0.62 0.18 0.08 0.07 0.02 0.00 0.01 0.14 0.04 0.12 0.20 0.18 0.24 0.17 0.08 0.03 0.02 0.05 0.11 0.04 0.02 0.03 0.06 0.05 0.05 0.01 0.00 0.00 0.01 0.10 0.10 0.02
0.45 0.41 0.50 0.48 0.52 0.52 0.42 0.55 0.43 0.38 0.67 1.12 0.70 0.76 0.91 0.63 0.21 0.26 0.12 0.06 0.02 0.03 0.16 0.15 0.11 0.18 0.29 0.34 0.19 0.08 0.03 0.01 0.01 0.04 0.15 0.09 0.04 0.04 0.06 0.09 0.03 0.00 0.01 0.06 0.05 0.02 0.04
0.44 0.40 0.46 0.44 0.43 0.53 0.42 0.48 0.42 0.34 0.50 0.80 0.85 0.83 0.86 1.05 0.41 0.22 0.22 0.09 0.02 0.01 0.03 0.15 0.06 0.04 0.11 0.14 0.13 0.11 0.08 0.05 0.00 0.01 0.02 0.16 0.12 0.08 0.04 0.02 0.00 0.00 0.01 0.01 0.02 0.03 0.01

GFSGBSN_prec_precacc_075.txt.gz
Total_Precipitation_Accumulation
0.04 0.04 0.03 0.03 0.02 0.01 0.01 0.01 0.02 0.01 0.01 0.01 0.00 0.00 0.00 0.00 0.00 0.00 0.00 0.00 0.00 0.00 0.00 0.00 0.00 0.00 0.00 0.00 0.00 0.00 0.00 0.00 0.00 0.00 0.00 0.00 0.00 0.00 0.00 0.00 0.00 0.00 0.00 0.00 0.00 0.01 0.00
0.05 0.04 0.03 0.02 0.02 0.01 0.01 0.01 0.01 0.01 0.00 0.00 0.00 0.00 0.00 0.00 0.00 0.00 0.00 0.00 0.00 0.00 0.00 0.00 0.00 0.00 0.00 0.00 0.00 0.00 0.00 0.00 0.00 0.00 0.00 0.00 0.00 0.00 0.00 0.00 0.00 0.00 0.00 0.00 0.00 0.00 0.00
0.05 0.04 0.03 0.02 0.02 0.02 0.01 0.01 0.01 0.01 0.01 0.01 0.00 0.00 0.00 0.01 0.01 0.01 0.01 0.00 0.00 0.00 0.00 0.00 0.00 0.00 0.00 0.00 0.00 0.00 0.00 0.00 0.00 0.00 0.00 0.00 0.00 0.00 0.00 0.00 0.00 0.00 0.00 0.00 0.04 0.02 0.00
0.05 0.04 0.04 0.03 0.02 0.02 0.02 0.01 0.01 0.01 0.01 0.00 0.01 0.01 0.00 0.00 0.01 0.00 0.00 0.00 0.00 0.00 0.00 0.00 0.00 0.00 0.00 0.00 0.00 0.00 0.00 0.00 0.00 0.00 0.00 0.00 0.00 0.00 0.00 0.00 0.00 0.00 0.00 0.00 0.05 0.01 0.00
0.06 0.04 0.04 0.03 0.03 0.02 0.02 0.02 0.01 0.01 0.01 0.01 0.00 0.00 0.00 0.00 0.00 0.01 0.00 0.00 0.00 0.00 0.00 0.00 0.00 0.00 0.00 0.00 0.00 0.00 0.00 0.00 0.00 0.00 0.00 0.00 0.00 0.00 0.00 0.01 0.00 0.00 0.00 0.00 0.00 0.00 0.00
0.07 0.05 0.04 0.03 0.03 0.02 0.02 0.02 0.02 0.01 0.01 0.01 0.00 0.00 0.00 0.00 0.01 0.01 0.00 0.00 0.00 0.00 0.00 0.00 0.00 0.01 0.00 0.00 0.00 0.00 0.00 0.01 0.01 0.00 0.00 0.00 0.00 0.00 0.00 0.00 0.00 0.00 0.00 0.00 0.00 0.00 0.00
0.06 0.05 0.04 0.03 0.03 0.02 0.02 0.03 0.03 0.02 0.01 0.01 0.01 0.00 0.00 0.01 0.01 0.02 0.00 0.00 0.00 0.00 0.00 0.00 0.00 0.00 0.00 0.00 0.00 0.00 0.00 0.00 0.00 0.00 0.02 0.00 0.00 0.00 0.00 0.00 0.00 0.00 0.00 0.00 0.00 0.00 0.00
0.04 0.04 0.03 0.03 0.02 0.02 0.02 0.03 0.02 0.03 0.02 0.01 0.01 0.01 0.01 0.01 0.03 0.02 0.00 0.00 0.00 0.00 0.00 0.00 0.00 0.00 0.00 0.00 0.00 0.00 0.00 0.00 0.00 0.00 0.01 0.00 0.00 0.00 0.00 0.00 0.00 0.00 0.00 0.00 0.00 0.00 0.00
0.12 0.08 0.05 0.03 0.02 0.02 0.02 0.03 0.03 0.03 0.02 0.02 0.01 0.01 0.01 0.02 0.04 0.01 0.01 0.00 0.00 0.00 0.00 0.00 0.00 0.00 0.00 0.00 0.00 0.00 0.00 0.00 0.00 0.00 0.00 0.01 0.01 0.00 0.00 0.00 0.00 0.00 0.00 0.00 0.00 0.00 0.00
0.13 0.11 0.10 0.08 0.05 0.03 0.02 0.03 0.03 0.03 0.03 0.02 0.01 0.00 0.01 0.04 0.02 0.00 0.00 0.00 0.00 0.00 0.00 0.00 0.00 0.00 0.00 0.00 0.00 0.00 0.00 0.00 0.00 0.00 0.00 0.02 0.00 0.00 0.00 0.00 0.00 0.01 0.00 0.00 0.00 0.00 0.02
0.08 0.07 0.06 0.06 0.07 0.06 0.03 0.03 0.03 0.03 0.03 0.02 0.01 0.00 0.01 0.04 0.01 0.00 0.00 0.00 0.00 0.01 0.01 0.00 0.00 0.00 0.00 0.00 0.00 0.00 0.00 0.00 0.00 0.00 0.00 0.01 0.00 0.00 0.00 0.00 0.00 0.01 0.00 0.00 0.00 0.00 0.01
0.11 0.08 0.08 0.07 0.06 0.06 0.06 0.04 0.03 0.03 0.03 0.03 0.02 0.01 0.03 0.05 0.02 0.00 0.01 0.02 0.07 0.06 0.02 0.00 0.00 0.00 0.00 0.00 0.00 0.00 0.00 0.00 0.00 0.00 0.00 0.01 0.01 0.01 0.01 0.00 0.00 0.00 0.00 0.00 0.00 0.00 0.00
0.20 0.12 0.10 0.08 0.06 0.05 0.05 0.06 0.07 0.06 0.05 0.05 0.04 0.03 0.05 0.02 0.01 0.01 0.02 0.11 0.12 0.04 0.00 0.00 0.00 0.00 0.00 0.00 0.00 0.00 0.00 0.00 0.00 0.00 0.00 0.00 0.00 0.01 0.01 0.00 0.00 0.00 0.00 0.01 0.10 0.04 0.02
0.33 0.23 0.15 0.11 0.09 0.05 0.05 0.06 0.06 0.07 0.08 0.10 0.07 0.07 0.07 0.03 0.00 0.02 0.09 0.25 0.08 0.00 0.00 0.00 0.00 0.00 0.00 0.00 0.00 0.00 0.00 0.00 0.00 0.00 0.00 0.00 0.00 0.00 0.00 0.00 0.02 0.01 0.00 0.04 0.08 0.04 0.05
0.50 0.40 0.28 0.17 0.14 0.11 0.08 0.07 0.07 0.08 0.10 0.14 0.19 0.15 0.12 0.03 0.02 0.06 0.28 0.26 0.03 0.00 0.00 0.00 0.00 0.00 0.00 0.00 0.00 0.00 0.00 0.00 0.00 0.00 0.00 0.00 0.01 0.01 0.00 0.00 0.00 0.01 0.02 0.00 0.00 0.01 0.01
0.55 0.54 0.42 0.32 0.24 0.15 0.14 0.13 0.13 0.14 0.20 0.21 0.24 0.22 0.08 0.02 0.07 0.27 0.47 0.14 0.00 0.00 0.00 0.00 0.00 0.00 0.00 0.00 0.00 0.00 0.00 0.00 0.00 0.00 0.00 0.02 0.06 0.03 0.00 0.00 0.00 0.00 0.00 0.00 0.00 0.00 0.02
0.57 0.57 0.50 0.43 0.40 0.31 0.20 0.18 0.22 0.24 0.24 0.34 0.39 0.46 0.09 0.05 0.36 0.51 0.31 0.04 0.00 0.00 0.00 0.00 0.00 0.00 0.00 0.00 0.00 0.01 0.00 0.00 0.00 0.00 0.00 0.00 0.03 0.08 0.00 0.00 0.00 0.00 0.00 0.00 0.00 0.00 0.04
0.58 0.56 0.57 0.46 0.40 0.41 0.41 0.26 0.28 0.35 0.40 0.87 0.82 0.59 0.17 0.16 0.35 0.23 0.06 0.00 0.00 0.00 0.00 0.00 0.00 0.00 0.00 0.00 0.00 0.01 0.00 0.00 0.00 0.00 0.00 0.00 0.00 0.01 0.01 0.01 0.01 0.00 0.00 0.01 0.01 0.02 0.01
0.62 0.55 0.56 0.52 0.44 0.41 0.47 0.48 0.36 0.41 0.64 0.94 1.06 0.64 0.68 0.24 0.14 0.06 0.02 0.01 0.00 0.00 0.00 0.00 0.00 0.00 0.00 0.00 0.01 0.01 0.00 0.00 0.00 0.00 0.00 0.00 0.00 0.01 0.00 0.02 0.01 0.00 0.00 0.00 0.00 0.00 0.00
0.77 0.64 0.54 0.61 0.51 0.48 0.47 0.57 0.57 0.51 0.73 1.10 1.19 0.87 1.09 0.50 0.03 0.00 0.01 0.01 0.00 0.00 0.00 0.00 0.00 0.00 0.02 0.02 0.03 0.05 0.01 0.01 0.00 0.00 0.00 0.00 0.01 0.00 0.00 0.00 0.00 0.00 0.00 0.00 0.00 0.00 0.00
0.83 0.81 0.72 0.64 0.64 0.64 0.55 0.57 0.68 0.70 0.96 1.85 1.62 0.41 0.31 0.27 0.08 0.02 0.00 0.00 0.00 0.00 0.00 0.00 0.00 0.02 0.03 0.03 0.03 0.03 0.06 0.02 0.00 0.00 0.00 0.00 0.00 0.00 0.00 0.00 0.00 0.00 0.00 0.00 0.00 0.00 0.00
0.70 0.71 0.74 0.68 0.71 0.74 0.74 0.67 0.69 0.89 1.37 2.67 1.49 0.16 0.06 0.03 0.01 0.03 0.03 0.01 0.00 0.00 0.00 0.00 0.00 0.00 0.02 0.05 0.03 0.03 0.07 0.13 0.01 0.00 0.00 0.00 0.00 0.00 0.00 0.00 0.00 0.00 0.00 0.00 0.00 0.00 0.00
0.66 0.67 0.71 0.68 0.75 0.75 0.85 0.81 0.86 1.15 2.00 3.44 1.16 0.08 0.10 0.06 0.06 0.04 0.02 0.00 0.00 0.00 0.00 0.00 0.00 0.00 0.02 0.04 0.06 0.11 0.07 0.05 0.02 0.01 0.00 0.00 0.00 0.00 0.01 0.00 0.01 0.01 0.00 0.00 0.00 0.00 0.00
0.59 0.63 0.63 0.63 0.69 0.73 0.78 0.89 0.97 1.33 1.83 1.89 0.49 0.11 0.31 0.23 0.08 0.02 0.00 0.00 0.00 0.00 0.00 0.00 0.00 0.00 0.00 0.01 0.10 0.15 0.12 0.15 0.05 0.01 0.00 0.00 0.00 0.00 0.01 0.01 0.05 0.00 0.00 0.00 0.00 0.00 0.00
0.58 0.55 0.61 0.57 0.62 0.64 0.76 0.75 0.97 1.26 1.27 1.02 0.32 0.20 0.44 0.23 0.05 0.02 0.01 0.00 0.00 0.01 0.01 0.01 0.00 0.00 0.00 0.04 0.17 0.20 0.25 0.16 0.13 0.04 0.01 0.01 0.02 0.04 0.02 0.02 0.01 0.00 0.00 0.00 0.00 0.00 0.00
0.54 0.50 0.60 0.58 0.54 0.53 0.63 0.73 0.66 1.02 1.31 1.01 0.56 0.44 0.65 0.40 0.07 0.02 0.02 0.01 0.00 0.02 0.06 0.04 0.03 0.03 0.03 0.06 0.19 0.16 0.23 0.13 0.08 0.08 0.03 0.01 0.02 0.07 0.04 0.04 0.02 0.00 0.00 0.00 0.00 0.00 0.00
0.50 0.46 0.52 0.60 0.54 0.52 0.50 0.61 0.50 0.59 1.27 1.40 0.85 0.74 0.79 0.63 0.19 0.08 0.07 0.02 0.00 0.01 0.14 0.04 0.12 0.20 0.18 0.26 0.20 0.10 0.04 0.07 0.09 0.13 0.05 0.02 0.05 0.07 0.05 0.07 0.01 0.00 0.00 0.01 0.10 0.10 0.02
0.46 0.43 0.51 0.50 0.54 0.55 0.44 0.56 0.44 0.39 0.72 1.50 1.31 0.92 0.95 0.73 0.25 0.27 0.13 0.06 0.02 0.03 0.17 0.15 0.11 0.18 0.31 0.36 0.22 0.10 0.04 0.01 0.01 0.05 0.17 0.11 0.05 0.05 0.06 0.09 0.03 0.00 0.01 0.06 0.05 0.02 0.04
0.45 0.41 0.46 0.44 0.45 0.56 0.45 0.50 0.44 0.36 0.53 0.99 1.61 1.20 0.90 1.17 0.48 0.24 0.23 0.09 0.02 0.01 0.04 0.15 0.06 0.04 0.11 0.17 0.15 0.12 0.08 0.05 0.00 0.01 0.02 0.17 0.15 0.10 0.05 0.02 0.00 0.00 0.01 0.01 0.02 0.03 0.01

GFSGBSN_prec_precacc_078.txt.gz
Total_Precipitation_Accumulation
0.04 0.04 0.03 0.03 0.02 0.01 0.01 0.01 0.02 0.01 0.01 0.01 0.00 0.00 0.00 0.00 0.00 0.00 0.00 0.00 0.00 0.00 0.00 0.00 0.00 0.00 0.00 0.00 0.00 0.00 0.00 0.00 0.00 0.00 0.00 0.00 0.00 0.00 0.00 0.00 0.00 0.00 0.00 0.00 0.00 0.01 0.00
0.06 0.04 0.03 0.02 0.02 0.01 0.01 0.01 0.01 0.01 0.00 0.00 0.00 0.00 0.00 0.00 0.00 0.00 0.00 0.00 0.00 0.00 0.00 0.00 0.00 0.00 0.00 0.00 0.00 0.00 0.00 0.00 0.00 0.00 0.00 0.00 0.00 0.00 0.00 0.00 0.00 0.00 0.00 0.00 0.00 0.00 0.00
0.05 0.05 0.03 0.03 0.02 0.02 0.01 0.01 0.01 0.01 0.01 0.01 0.00 0.00 0.00 0.01 0.01 0.01 0.01 0.00 0.00 0.00 0.00 0.00 0.00 0.00 0.00 0.00 0.00 0.00 0.00 0.00 0.00 0.00 0.00 0.00 0.00 0.00 0.00 0.00 0.00 0.00 0.00 0.00 0.04 0.02 0.00
0.05 0.04 0.04 0.03 0.03 0.02 0.02 0.01 0.01 0.01 0.01 0.00 0.01 0.01 0.00 0.00 0.01 0.00 0.00 0.00 0.00 0.00 0.00 0.00 0.00 0.00 0.00 0.00 0.00 0.00 0.00 0.00 0.00 0.00 0.00 0.00 0.00 0.00 0.00 0.00 0.00 0.00 0.00 0.00 0.05 0.01 0.00
0.06 0.05 0.04 0.03 0.03 0.02 0.02 0.02 0.01 0.01 0.01 0.01 0.00 0.00 0.00 0.00 0.00 0.01 0.00 0.00 0.00 0.00 0.00 0.00 0.00 0.00 0.00 0.00 0.00 0.00 0.00 0.00 0.00 0.00 0.00 0.00 0.00 0.00 0.00 0.01 0.00 0.00 0.00 0.00 0.00 0.00 0.00
0.07 0.05 0.04 0.03 0.03 0.02 0.02 0.02 0.02 0.01 0.01 0.01 0.00 0.00 0.00 0.00 0.01 0.01 0.00 0.00 0.00 0.00 0.00 0.00 0.00 0.01 0.00 0.00 0.00 0.00 0.00 0.01 0.01 0.00 0.00 0.00 0.00 0.00 0.00 0.00 0.00 0.00 0.00 0.00 0.00 0.00 0.00
0.06 0.05 0.04 0.03 0.03 0.02 0.02 0.03 0.03 0.02 0.01 0.01 0.01 0.00 0.00 0.01 0.01 0.02 0.00 0.00 0.00 0.00 0.00 0.00 0.00 0.00 0.00 0.00 0.00 0.00 0.00 0.00 0.00 0.00 0.02 0.00 0.00 0.00 0.00 0.00 0.00 0.00 0.00 0.00 0.00 0.00 0.00
0.05 0.04 0.03 0.03 0.03 0.02 0.02 0.03 0.03 0.03 0.02 0.01 0.01 0.01 0.01 0.01 0.03 0.02 0.00 0.00 0.00 0.00 0.00 0.00 0.00 0.00 0.00 0.00 0.00 0.00 0.00 0.00 0.00 0.00 0.01 0.00 0.00 0.00 0.00 0.00 0.00 0.00 0.00 0.00 0.00 0.00 0.00
0.14 0.09 0.05 0.04 0.03 0.02 0.02 0.03 0.03 0.03 0.02 0.02 0.01 0.01 0.01 0.02 0.04 0.01 0.01 0.00 0.00 0.00 0.00 0.00 0.00 0.00 0.00 0.00 0.00 0.00 0.00 0.00 0.00 0.00 0.00 0.01 0.01 0.00 0.00 0.00 0.00 0.00 0.00 0.00 0.00 0.00 0.00
0.14 0.12 0.10 0.08 0.06 0.03 0.03 0.03 0.03 0.03 0.03 0.02 0.01 0.01 0.01 0.04 0.02 0.00 0.00 0.00 0.00 0.00 0.00 0.00 0.00 0.00 0.00 0.00 0.00 0.00 0.00 0.00 0.00 0.00 0.00 0.02 0.00 0.00 0.00 0.00 0.00 0.01 0.00 0.00 0.00 0.00 0.02
0.09 0.08 0.07 0.07 0.07 0.06 0.04 0.03 0.03 0.03 0.03 0.02 0.01 0.00 0.02 0.04 0.01 0.00 0.00 0.00 0.00 0.01 0.01 0.00 0.00 0.00 0.00 0.00 0.00 0.00 0.00 0.00 0.00 0.00 0.00 0.01 0.00 0.00 0.00 0.00 0.00 0.01 0.00 0.00 0.00 0.00 0.01
0.12 0.09 0.08 0.07 0.07 0.06 0.06 0.05 0.04 0.03 0.03 0.03 0.02 0.02 0.04 0.05 0.02 0.00 0.01 0.02 0.08 0.06 0.02 0.00 0.00 0.00 0.00 0.00 0.00 0.00 0.00 0.00 0.00 0.00 0.00 0.01 0.01 0.01 0.01 0.00 0.00 0.00 0.00 0.00 0.00 0.00 0.00
0.21 0.13 0.10 0.08 0.07 0.06 0.05 0.06 0.07 0.06 0.06 0.05 0.04 0.03 0.06 0.03 0.01 0.01 0.02 0.11 0.14 0.04 0.00 0.00 0.00 0.00 0.00 0.00 0.00 0.00 0.00 0.00 0.00 0.00 0.00 0.00 0.00 0.01 0.01 0.00 0.00 0.00 0.00 0.01 0.10 0.04 0.02
0.34 0.23 0.15 0.11 0.09 0.06 0.05 0.06 0.06 0.07 0.09 0.10 0.07 0.08 0.08 0.04 0.00 0.02 0.10 0.26 0.10 0.00 0.00 0.00 0.00 0.00 0.00 0.00 0.00 0.00 0.00 0.00 0.00 0.00 0.00 0.00 0.00 0.00 0.00 0.00 0.02 0.01 0.00 0.04 0.08 0.04 0.05
0.51 0.41 0.29 0.17 0.14 0.11 0.09 0.08 0.07 0.08 0.11 0.14 0.21 0.16 0.13 0.03 0.02 0.06 0.29 0.27 0.03 0.00 0.00 0.00 0.00 0.00 0.00 0.00 0.00 0.00 0.00 0.00 0.00 0.00 0.00 0.00 0.01 0.01 0.00 0.00 0.00 0.01 0.02 0.00 0.00 0.01 0.01
0.55 0.55 0.42 0.32 0.24 0.15 0.14 0.13 0.13 0.15 0.22 0.23 0.27 0.25 0.08 0.02 0.07 0.28 0.49 0.15 0.00 0.00 0.00 0.00 0.00 0.00 0.00 0.00 0.00 0.00 0.00 0.00 0.00 0.00 0.00 0.02 0.06 0.03 0.00 0.00 0.00 0.00 0.00 0.00 0.00 0.00 0.02
0.57 0.57 0.50 0.43 0.40 0.31 0.20 0.18 0.23 0.25 0.27 0.40 0.46 0.53 0.10 0.05 0.39 0.54 0.32 0.04 0.00 0.00 0.00 0.00 0.00 0.00 0.00 0.00 0.01 0.03 0.00 0.00 0.00 0.00 0.00 0.00 0.03 0.08 0.00 0.00 0.00 0.00 0.00 0.00 0.00 0.00 0.04
0.58 0.56 0.57 0.46 0.40 0.41 0.42 0.27 0.29 0.37 0.45 1.00 1.05 0.77 0.20 0.17 0.48 0.29 0.07 0.00 0.00 0.00 0.00 0.00 0.00 0.00 0.00 0.00 0.00 0.02 0.01 0.00 0.00 0.00 0.00 0.00 0.00 0.01 0.01 0.01 0.01 0.00 0.00 0.01 0.01 0.02 0.01
0.62 0.55 0.57 0.52 0.44 0.42 0.47 0.49 0.38 0.45 0.75 1.18 1.39 0.76 0.73 0.25 0.19 0.09 0.02 0.01 0.00 0.00 0.00 0.00 0.00 0.00 0.00 0.00 0.02 0.01 0.03 0.00 0.00 0.00 0.00 0.00 0.00 0.01 0.00 0.02 0.01 0.00 0.00 0.00 0.00 0.00 0.00
0.78 0.64 0.54 0.62 0.52 0.49 0.49 0.58 0.60 0.57 0.91 1.51 1.51 0.98 1.23 0.62 0.04 0.01 0.02 0.03 0.01 0.00 0.00 0.00 0.00 0.00 0.02 0.02 0.03 0.06 0.03 0.05 0.00 0.00 0.00 0.00 0.01 0.00 0.00 0.00 0.00 0.00 0.00 0.00 0.00 0.00 0.00
0.84 0.82 0.74 0.66 0.66 0.66 0.58 0.61 0.73 0.80 1.20 2.42 2.01 0.48 0.34 0.37 0.12 0.02 0.01 0.01 0.00 0.00 0.00 0.00 0.00 0.02 0.03 0.04 0.03 0.03 0.10 0.09 0.06 0.00 0.00 0.00 0.00 0.00 0.00 0.00 0.00 0.00 0.00 0.00 0.00 0.00 0.00
0.72 0.73 0.76 0.70 0.74 0.78 0.78 0.73 0.78 1.05 1.70 3.33 1.78 0.18 0.07 0.03 0.02 0.04 0.03 0.01 0.00 0.00 0.00 0.00 0.00 0.00 0.02 0.05 0.03 0.03 0.08 0.27 0.19 0.11 0.01 0.00 0.00 0.00 0.00 0.00 0.00 0.00 0.00 0.00 0.00 0.00 0.00
0.69 0.69 0.73 0.70 0.77 0.78 0.88 0.85 0.92 1.31 2.42 4.03 1.34 0.08 0.11 0.07 0.06 0.05 0.03 0.01 0.00 0.00 0.00 0.00 0.00 0.00 0.02 0.04 0.06 0.11 0.09 0.13 0.24 0.31 0.10 0.01 0.00 0.00 0.01 0.00 0.01 0.02 0.00 0.00 0.00 0.00 0.00
0.62 0.66 0.65 0.65 0.71 0.76 0.81 0.92 1.01 1.44 2.14 2.21 0.56 0.12 0.33 0.27 0.08 0.02 0.00 0.00 0.00 0.00 0.00 0.00 0.00 0.00 0.00 0.01 0.11 0.18 0.14 0.18 0.13 0.10 0.20 0.05 0.00 0.00 0.01 0.02 0.12 0.02 0.00 0.00 0.00 0.00 0.00
0.59 0.55 0.62 0.58 0.63 0.66 0.78 0.77 1.00 1.33 1.42 1.23 0.45 0.21 0.44 0.23 0.07 0.03 0.01 0.00 0.00 0.01 0.01 0.01 0.00 0.00 0.00 0.04 0.17 0.21 0.26 0.16 0.17 0.08 0.03 0.09 0.03 0.05 0.03 0.03 0.05 0.00 0.00 0.00 0.00 0.00 0.00
0.54 0.51 0.61 0.59 0.55 0.53 0.63 0.75 0.68 1.06 1.41 1.18 0.77 0.52 0.66 0.41 0.08 0.03 0.03 0.01 0.00 0.02 0.06 0.04 0.03 0.03 0.03 0.06 0.20 0.16 0.24 0.14 0.11 0.13 0.06 0.04 0.04 0.09 0.05 0.04 0.02 0.00 0.00 0.00 0.00 0.00 0.00
0.50 0.47 0.53 0.61 0.55 0.53 0.50 0.61 0.51 0.61 1.31 1.60 1.10 0.88 0.88 0.72 0.21 0.09 0.08 0.02 0.00 0.01 0.14 0.04 0.12 0.20 0.18 0.26 0.20 0.10 0.04 0.07 0.14 0.18 0.18 0.23 0.11 0.08 0.06 0.08 0.01 0.00 0.00 0.01 0.10 0.10 0.02
0.47 0.44 0.53 0.52 0.56 0.57 0.45 0.56 0.45 0.40 0.75 1.64 1.65 1.11 1.07 0.84 0.27 0.27 0.13 0.06 0.02 0.03 0.17 0.15 0.11 0.18 0.31 0.36 0.22 0.10 0.04 0.01 0.01 0.05 0.21 0.24 0.16 0.08 0.09 0.11 0.03 0.00 0.01 0.06 0.06 0.02 0.04
0.46 0.42 0.47 0.46 0.47 0.58 0.48 0.52 0.44 0.36 0.55 1.08 2.00 1.66 1.00 1.26 0.53 0.24 0.23 0.09 0.02 0.01 0.04 0.15 0.06 0.04 0.11 0.17 0.15 0.12 0.09 0.05 0.00 0.01 0.03 0.19 0.20 0.13 0.05 0.03 0.01 0.01 0.01 0.01 0.02 0.03 0.01

GFSGBSN_prec_precacc_081.txt.gz
Total_Precipitation_Accumulation
0.05 0.04 0.04 0.03 0.02 0.01 0.01 0.01 0.02 0.01 0.01 0.01 0.00 0.00 0.00 0.00 0.00 0.00 0.00 0.00 0.00 0.00 0.00 0.00 0.00 0.00 0.00 0.00 0.00 0.00 0.00 0.00 0.00 0.00 0.00 0.00 0.00 0.00 0.00 0.00 0.00 0.00 0.00 0.00 0.00 0.01 0.00
0.06 0.05 0.04 0.03 0.02 0.01 0.01 0.01 0.01 0.01 0.00 0.00 0.00 0.00 0.00 0.00 0.00 0.00 0.00 0.00 0.00 0.00 0.00 0.00 0.00 0.00 0.00 0.00 0.00 0.00 0.00 0.00 0.00 0.00 0.00 0.00 0.00 0.00 0.00 0.00 0.00 0.00 0.00 0.00 0.00 0.00 0.00
0.05 0.05 0.03 0.03 0.02 0.02 0.01 0.01 0.01 0.01 0.01 0.01 0.00 0.00 0.00 0.01 0.01 0.01 0.01 0.00 0.00 0.00 0.00 0.00 0.00 0.00 0.00 0.00 0.00 0.00 0.00 0.00 0.00 0.00 0.00 0.00 0.00 0.00 0.00 0.00 0.00 0.00 0.00 0.00 0.04 0.02 0.00
0.05 0.04 0.04 0.03 0.03 0.02 0.02 0.01 0.01 0.01 0.01 0.01 0.01 0.01 0.00 0.00 0.01 0.00 0.00 0.00 0.00 0.00 0.00 0.00 0.00 0.00 0.00 0.00 0.00 0.00 0.00 0.00 0.00 0.00 0.00 0.00 0.00 0.00 0.00 0.00 0.00 0.00 0.00 0.00 0.05 0.01 0.00
0.06 0.05 0.04 0.03 0.03 0.03 0.02 0.02 0.01 0.01 0.01 0.01 0.00 0.00 0.00 0.00 0.00 0.01 0.00 0.00 0.00 0.00 0.00 0.00 0.00 0.00 0.00 0.00 0.00 0.00 0.00 0.00 0.00 0.00 0.00 0.00 0.00 0.00 0.00 0.01 0.00 0.00 0.00 0.00 0.00 0.00 0.00
0.08 0.06 0.04 0.03 0.03 0.03 0.02 0.02 0.02 0.01 0.01 0.01 0.00 0.00 0.00 0.00 0.01 0.01 0.00 0.00 0.00 0.00 0.00 0.00 0.01 0.01 0.00 0.00 0.00 0.00 0.00 0.01 0.01 0.00 0.00 0.00 0.00 0.00 0.00 0.00 0.00 0.00 0.00 0.00 0.00 0.00 0.00
0.07 0.06 0.04 0.04 0.03 0.02 0.02 0.03 0.03 0.02 0.01 0.01 0.01 0.00 0.00 0.01 0.01 0.02 0.00 0.00 0.00 0.00 0.00 0.00 0.00 0.00 0.00 0.00 0.00 0.00 0.00 0.00 0.00 0.00 0.02 0.00 0.00 0.00 0.00 0.00 0.00 0.00 0.00 0.00 0.00 0.00 0.00
0.06 0.05 0.04 0.04 0.03 0.02 0.02 0.03 0.03 0.03 0.02 0.01 0.01 0.01 0.01 0.01 0.03 0.02 0.00 0.00 0.00 0.00 0.00 0.00 0.00 0.00 0.00 0.00 0.00 0.00 0.00 0.00 0.00 0.00 0.01 0.00 0.00 0.00 0.00 0.00 0.00 0.00 0.00 0.00 0.00 0.00 0.00
0.15 0.09 0.06 0.05 0.03 0.03 0.02 0.03 0.04 0.03 0.02 0.02 0.01 0.01 0.01 0.02 0.04 0.01 0.01 0.00 0.00 0.00 0.00 0.00 0.00 0.00 0.00 0.00 0.00 0.00 0.00 0.00 0.00 0.00 0.00 0.01 0.01 0.00 0.00 0.00 0.00 0.00 0.00 0.00 0.00 0.00 0.00
0.16 0.13 0.11 0.09 0.06 0.04 0.03 0.03 0.04 0.03 0.03 0.02 0.01 0.01 0.01 0.04 0.02 0.00 0.00 0.00 0.00 0.00 0.00 0.00 0.00 0.00 0.00 0.00 0.00 0.00 0.00 0.00 0.00 0.00 0.00 0.02 0.00 0.00 0.00 0.00 0.00 0.01 0.00 0.00 0.00 0.00 0.02
0.11 0.10 0.08 0.07 0.08 0.07 0.05 0.04 0.04 0.04 0.03 0.03 0.01 0.00 0.02 0.04 0.01 0.00 0.00 0.00 0.00 0.01 0.01 0.00 0.00 0.00 0.00 0.00 0.00 0.00 0.00 0.00 0.00 0.00 0.00 0.01 0.00 0.00 0.00 0.00 0.00 0.01 0.00 0.00 0.00 0.00 0.01
0.14 0.11 0.11 0.10 0.08 0.08 0.06 0.05 0.04 0.03 0.03 0.03 0.03 0.02 0.05 0.05 0.02 0.00 0.01 0.02 0.09 0.06 0.02 0.00 0.00 0.00 0.00 0.00 0.00 0.00 0.00 0.00 0.00 0.00 0.00 0.01 0.01 0.01 0.01 0.00 0.00 0.00 0.00 0.00 0.00 0.00 0.00
0.24 0.15 0.12 0.09 0.07 0.06 0.06 0.06 0.07 0.07 0.06 0.06 0.04 0.03 0.08 0.03 0.01 0.01 0.02 0.11 0.16 0.05 0.00 0.00 0.00 0.00 0.00 0.00 0.00 0.00 0.00 0.00 0.00 0.00 0.00 0.00 0.00 0.01 0.01 0.00 0.00 0.00 0.00 0.01 0.10 0.04 0.02
0.35 0.24 0.16 0.12 0.10 0.07 0.06 0.07 0.06 0.07 0.09 0.10 0.08 0.09 0.10 0.04 0.00 0.02 0.10 0.26 0.10 0.00 0.00 0.00 0.00 0.00 0.00 0.00 0.00 0.00 0.00 0.00 0.00 0.00 0.00 0.00 0.00 0.00 0.00 0.00 0.02 0.01 0.00 0.04 0.08 0.04 0.05
0.54 0.44 0.31 0.19 0.16 0.12 0.09 0.08 0.08 0.08 0.11 0.14 0.23 0.17 0.14 0.03 0.02 0.06 0.29 0.27 0.03 0.00 0.00 0.00 0.00 0.00 0.00 0.00 0.00 0.00 0.00 0.00 0.00 0.00 0.00 0.00 0.01 0.01 0.00 0.00 0.00 0.01 0.02 0.00 0.00 0.01 0.01
0.57 0.56 0.43 0.33 0.25 0.16 0.15 0.14 0.14 0.15 0.22 0.24 0.31 0.26 0.09 0.02 0.08 0.28 0.49 0.15 0.00 0.00 0.00 0.00 0.00 0.00 0.00 0.00 0.00 0.00 0.00 0.00 0.00 0.00 0.00 0.02 0.06 0.03 0.00 0.00 0.00 0.00 0.00 0.00 0.00 0.00 0.02
0.58 0.58 0.51 0.44 0.41 0.32 0.21 0.19 0.24 0.26 0.28 0.46 0.53 0.58 0.11 0.05 0.43 0.57 0.33 0.04 0.00 0.00 0.00 0.00 0.00 0.00 0.00 0.00 0.01 0.03 0.00 0.00 0.00 0.00 0.00 0.00 0.03 0.08 0.00 0.00 0.00 0.00 0.00 0.00 0.00 0.00 0.04
0.59 0.57 0.57 0.46 0.41 0.42 0.42 0.27 0.30 0.38 0.47 1.08 1.13 0.84 0.22 0.17 0.54 0.33 0.07 0.00 0.00 0.00 0.00 0.00 0.00 0.00 0.00 0.00 0.00 0.02 0.01 0.00 0.00 0.00 0.00 0.00 0.00 0.01 0.01 0.01 0.01 0.00 0.00 0.01 0.01 0.02 0.01
0.62 0.55 0.57 0.52 0.45 0.42 0.47 0.49 0.38 0.45 0.79 1.26 1.52 0.82 0.77 0.26 0.22 0.10 0.03 0.01 0.00 0.00 0.00 0.00 0.00 0.00 0.00 0.00 0.02 0.01 0.03 0.00 0.00 0.00 0.00 0.00 0.00 0.01 0.00 0.02 0.01 0.00 0.00 0.00 0.00 0.00 0.00
0.78 0.65 0.54 0.62 0.52 0.49 0.49 0.59 0.60 0.59 0.94 1.60 1.69 1.08 1.39 0.84 0.06 0.01 0.03 0.05 0.02 0.00 0.00 0.00 0.00 0.00 0.02 0.02 0.03 0.06 0.03 0.05 0.00 0.00 0.00 0.04 0.03 0.00 0.00 0.00 0.00 0.00 0.00 0.00 0.00 0.00 0.00
0.84 0.83 0.74 0.66 0.66 0.67 0.59 0.62 0.75 0.81 1.24 2.60 2.29 0.59 0.39 0.49 0.20 0.02 0.01 0.02 0.01 0.01 0.00 0.00 0.00 0.02 0.03 0.04 0.03 0.03 0.10 0.09 0.07 0.02 0.00 0.08 0.06 0.00 0.00 0.00 0.00 0.00 0.00 0.00 0.00 0.00 0.00
0.73 0.75 0.77 0.72 0.75 0.79 0.79 0.74 0.80 1.10 1.80 3.62 2.05 0.25 0.08 0.03 0.02 0.06 0.04 0.02 0.00 0.00 0.00 0.00 0.00 0.00 0.02 0.05 0.03 0.03 0.08 0.27 0.20 0.21 0.14 0.10 0.04 0.00 0.00 0.00 0.00 0.01 0.00 0.00 0.00 0.00 0.00
0.72 0.72 0.75 0.72 0.79 0.80 0.91 0.89 0.98 1.42 2.64 4.43 1.51 0.12 0.12 0.08 0.06 0.06 0.05 0.01 0.01 0.00 0.00 0.00 0.00 0.00 0.02 0.04 0.06 0.11 0.09 0.14 0.27 0.42 0.41 0.24 0.11 0.01 0.01 0.00 0.01 0.04 0.00 0.00 0.00 0.00 0.00
0.68 0.73 0.72 0.70 0.75 0.79 0.84 0.97 1.12 1.60 2.38 2.42 0.63 0.15 0.35 0.30 0.09 0.03 0.00 0.00 0.00 0.01 0.00 0.00 0.00 0.00 0.00 0.01 0.11 0.18 0.14 0.19 0.14 0.12 0.30 0.27 0.23 0.08 0.01 0.02 0.15 0.05 0.00 0.00 0.00 0.00 0.00
0.64 0.61 0.68 0.65 0.71 0.74 0.85 0.85 1.14 1.52 1.62 1.36 0.50 0.22 0.44 0.25 0.09 0.04 0.01 0.00 0.00 0.01 0.01 0.01 0.00 0.00 0.00 0.04 0.17 0.21 0.26 0.17 0.17 0.08 0.03 0.16 0.24 0.24 0.06 0.03 0.05 0.00 0.00 0.00 0.00 0.00 0.00
0.55 0.51 0.61 0.59 0.55 0.55 0.68 0.84 0.80 1.22 1.58 1.34 0.86 0.57 0.67 0.45 0.10 0.03 0.03 0.01 0.00 0.02 0.06 0.04 0.03 0.03 0.03 0.06 0.21 0.20 0.24 0.14 0.11 0.15 0.08 0.06 0.10 0.24 0.17 0.08 0.02 0.00 0.00 0.00 0.00 0.01 0.00
0.51 0.47 0.54 0.62 0.56 0.53 0.51 0.62 0.56 0.72 1.45 1.81 1.26 0.99 1.00 0.83 0.24 0.09 0.08 0.03 0.00 0.01 0.14 0.04 0.12 0.20 0.18 0.26 0.22 0.12 0.05 0.08 0.14 0.19 0.19 0.26 0.20 0.16 0.14 0.15 0.02 0.00 0.00 0.01 0.15 0.12 0.02
0.47 0.44 0.53 0.52 0.57 0.57 0.46 0.56 0.45 0.43 0.84 1.80 1.85 1.24 1.23 0.96 0.30 0.27 0.13 0.06 0.02 0.03 0.17 0.15 0.11 0.18 0.31 0.36 0.22 0.10 0.04 0.01 0.01 0.05 0.21 0.25 0.32 0.26 0.24 0.16 0.04 0.00 0.02 0.07 0.07 0.02 0.04
0.46 0.43 0.48 0.47 0.48 0.59 0.49 0.54 0.45 0.37 0.56 1.18 2.19 1.87 1.14 1.35 0.60 0.25 0.23 0.09 0.02 0.01 0.04 0.15 0.06 0.04 0.11 0.17 0.15 0.12 0.09 0.05 0.01 0.01 0.03 0.19 0.22 0.24 0.23 0.13 0.01 0.01 0.02 0.03 0.02 0.03 0.01

GFSGBSN_prec_precacc_087.txt.gz
Total_Precipitation_Accumulation
0.07 0.06 0.06 0.04 0.03 0.03 0.02 0.03 0.02 0.02 0.01 0.01 0.00 0.00 0.00 0.00 0.00 0.00 0.00 0.00 0.00 0.00 0.00 0.00 0.00 0.00 0.00 0.00 0.00 0.00 0.00 0.00 0.00 0.00 0.00 0.00 0.00 0.00 0.00 0.00 0.00 0.00 0.00 0.00 0.00 0.01 0.00
0.07 0.05 0.04 0.04 0.03 0.02 0.02 0.02 0.02 0.01 0.01 0.01 0.00 0.00 0.00 0.00 0.00 0.00 0.00 0.00 0.00 0.00 0.00 0.00 0.00 0.00 0.00 0.00 0.00 0.00 0.00 0.00 0.00 0.00 0.00 0.00 0.00 0.00 0.00 0.00 0.00 0.00 0.00 0.00 0.00 0.00 0.00
0.07 0.06 0.05 0.04 0.03 0.02 0.02 0.02 0.01 0.01 0.01 0.01 0.01 0.00 0.00 0.01 0.01 0.01 0.01 0.00 0.00 0.00 0.00 0.00 0.00 0.00 0.00 0.00 0.00 0.00 0.00 0.00 0.00 0.00 0.00 0.00 0.00 0.00 0.00 0.00 0.00 0.00 0.00 0.00 0.04 0.02 0.00
0.07 0.06 0.06 0.05 0.04 0.04 0.03 0.02 0.02 0.01 0.01 0.01 0.01 0.01 0.00 0.00 0.01 0.00 0.00 0.00 0.00 0.00 0.00 0.00 0.00 0.00 0.00 0.00 0.00 0.00 0.00 0.00 0.00 0.00 0.00 0.00 0.00 0.00 0.00 0.00 0.00 0.00 0.00 0.00 0.05 0.01 0.00
0.09 0.07 0.06 0.05 0.05 0.04 0.03 0.03 0.02 0.01 0.01 0.01 0.00 0.00 0.00 0.00 0.00 0.01 0.00 0.00 0.00 0.00 0.00 0.00 0.00 0.00 0.00 0.00 0.00 0.00 0.00 0.00 0.00 0.00 0.00 0.00 0.00 0.00 0.00 0.01 0.00 0.00 0.00 0.00 0.00 0.00 0.00
0.10 0.08 0.06 0.05 0.05 0.04 0.04 0.04 0.03 0.02 0.01 0.01 0.00 0.00 0.00 0.00 0.01 0.01 0.00 0.00 0.00 0.00 0.00 0.00 0.01 0.01 0.00 0.00 0.00 0.00 0.00 0.01 0.01 0.00 0.00 0.00 0.00 0.00 0.00 0.00 0.00 0.00 0.00 0.00 0.00 0.00 0.00
0.08 0.07 0.06 0.05 0.04 0.04 0.04 0.04 0.04 0.03 0.02 0.01 0.01 0.00 0.00 0.01 0.01 0.02 0.00 0.00 0.00 0.00 0.00 0.00 0.00 0.00 0.00 0.00 0.00 0.00 0.00 0.00 0.00 0.00 0.02 0.00 0.00 0.00 0.00 0.00 0.00 0.00 0.00 0.00 0.00 0.00 0.00
0.07 0.06 0.05 0.05 0.05 0.04 0.04 0.04 0.04 0.04 0.03 0.01 0.01 0.01 0.01 0.01 0.03 0.02 0.00 0.00 0.00 0.00 0.00 0.00 0.00 0.00 0.00 0.00 0.00 0.00 0.00 0.00 0.00 0.00 0.01 0.00 0.00 0.00 0.00 0.00 0.00 0.00 0.00 0.00 0.00 0.00 0.00
0.16 0.11 0.08 0.07 0.06 0.06 0.06 0.05 0.06 0.04 0.03 0.02 0.01 0.01 0.01 0.02 0.04 0.01 0.01 0.00 0.00 0.00 0.00 0.00 0.00 0.00 0.00 0.00 0.00 0.00 0.00 0.00 0.00 0.00 0.00 0.01 0.01 0.00 0.00 0.00 0.00 0.00 0.00 0.00 0.00 0.00 0.00
0.19 0.16 0.14 0.11 0.09 0.06 0.06 0.05 0.04 0.04 0.03 0.03 0.01 0.01 0.01 0.04 0.02 0.00 0.00 0.00 0.00 0.00 0.00 0.00 0.00 0.00 0.00 0.00 0.00 0.00 0.00 0.00 0.00 0.00 0.00 0.02 0.00 0.00 0.00 0.00 0.00 0.01 0.00 0.00 0.00 0.00 0.02
0.12 0.10 0.09 0.08 0.09 0.09 0.07 0.06 0.05 0.05 0.05 0.03 0.02 0.00 0.02 0.05 0.01 0.00 0.00 0.00 0.00 0.01 0.01 0.00 0.00 0.00 0.00 0.00 0.00 0.00 0.00 0.00 0.00 0.00 0.00 0.01 0.00 0.00 0.00 0.00 0.00 0.01 0.00 0.00 0.00 0.00 0.01
0.16 0.13 0.13 0.12 0.12 0.12 0.10 0.08 0.06 0.04 0.03 0.04 0.03 0.02 0.05 0.05 0.02 0.00 0.01 0.02 0.09 0.06 0.02 0.00 0.00 0.00 0.00 0.00 0.00 0.00 0.00 0.00 0.00 0.00 0.00 0.01 0.01 0.01 0.01 0.00 0.00 0.00 0.00 0.00 0.00 0.00 0.00
0.27 0.18 0.16 0.13 0.11 0.10 0.09 0.09 0.09 0.08 0.06 0.06 0.04 0.04 0.09 0.03 0.01 0.01 0.02 0.11 0.17 0.05 0.00 0.00 0.00 0.00 0.00 0.00 0.00 0.00 0.00 0.00 0.00 0.00 0.00 0.00 0.00 0.01 0.01 0.00 0.00 0.00 0.00 0.01 0.10 0.04 0.02
0.36 0.25 0.17 0.13 0.11 0.09 0.08 0.09 0.09 0.09 0.10 0.11 0.08 0.11 0.11 0.04 0.00 0.02 0.10 0.26 0.11 0.00 0.00 0.00 0.00 0.00 0.00 0.00 0.00 0.00 0.00 0.00 0.00 0.00 0.00 0.00 0.00 0.00 0.00 0.00 0.02 0.01 0.00 0.04 0.08 0.04 0.05
0.59 0.49 0.36 0.23 0.20 0.17 0.14 0.13 0.12 0.11 0.13 0.15 0.26 0.19 0.15 0.03 0.02 0.06 0.29 0.27 0.03 0.00 0.00 0.00 0.00 0.00 0.00 0.00 0.00 0.00 0.00 0.00 0.00 0.00 0.00 0.00 0.01 0.01 0.00 0.00 0.00 0.01 0.02 0.00 0.00 0.01 0.01
0.59 0.58 0.45 0.36 0.29 0.20 0.19 0.17 0.16 0.17 0.24 0.28 0.33 0.29 0.09 0.02 0.08 0.29 0.50 0.15 0.00 0.00 0.00 0.00 0.00 0.00 0.00 0.00 0.00 0.00 0.00 0.00 0.00 0.00 0.00 0.02 0.06 0.03 0.00 0.00 0.00 0.00 0.00 0.00 0.00 0.00 0.02
0.62 0.62 0.55 0.48 0.47 0.37 0.26 0.23 0.28 0.29 0.31 0.54 0.61 0.64 0.12 0.05 0.48 0.62 0.34 0.04 0.00 0.00 0.00 0.00 0.00 0.00 0.00 0.00 0.01 0.03 0.00 0.00 0.00 0.00 0.00 0.00 0.03 0.08 0.00 0.00 0.00 0.00 0.00 0.00 0.00 0.00 0.04
0.63 0.62 0.63 0.52 0.46 0.46 0.47 0.32 0.33 0.43 0.54 1.18 1.23 0.92 0.24 0.18 0.59 0.36 0.08 0.00 0.00 0.00 0.00 0.00 0.00 0.00 0.00 0.00 0.00 0.02 0.01 0.00 0.00 0.00 0.00 0.00 0.00 0.01 0.01 0.01 0.01 0.00 0.00 0.01 0.01 0.02 0.01
0.65 0.59 0.62 0.56 0.48 0.46 0.51 0.55 0.44 0.50 0.87 1.30 1.59 0.88 0.84 0.32 0.27 0.12 0.04 0.02 0.00 0.00 0.00 0.00 0.00 0.00 0.00 0.00 0.02 0.01 0.03 0.00 0.00 0.00 0.00 0.00 0.01 0.02 0.00 0.02 0.01 0.00 0.00 0.00 0.00 0.00 0.00
0.81 0.69 0.58 0.65 0.55 0.52 0.52 0.62 0.66 0.63 1.02 1.70 1.80 1.21 1.54 1.06 0.10 0.01 0.04 0.06 0.04 0.00 0.00 0.00 0.00 0.00 0.02 0.02 0.03 0.06 0.03 0.05 0.00 0.00 0.00 0.05 0.05 0.02 0.02 0.00 0.00 0.00 0.00 0.00 0.00 0.00 0.00
0.86 0.84 0.76 0.68 0.68 0.68 0.61 0.64 0.77 0.86 1.32 2.77 2.41 0.71 0.45 0.60 0.39 0.08 0.02 0.02 0.02 0.02 0.00 0.00 0.00 0.02 0.03 0.04 0.03 0.03 0.10 0.09 0.07 0.02 0.01 0.10 0.11 0.00 0.00 0.00 0.00 0.00 0.00 0.00 0.00 0.00 0.00
0.75 0.76 0.79 0.74 0.77 0.81 0.83 0.78 0.85 1.16 1.91 3.82 2.16 0.30 0.14 0.08 0.05 0.12 0.09 0.03 0.01 0.00 0.00 0.00 0.00 0.00 0.02 0.05 0.03 0.03 0.08 0.27 0.21 0.22 0.16 0.14 0.11 0.01 0.00 0.00 0.00 0.01 0.00 0.00 0.00 0.00 0.00
0.73 0.73 0.77 0.73 0.81 0.82 0.93 0.93 1.05 1.49 2.77 4.55 1.61 0.20 0.24 0.14 0.09 0.14 0.10 0.03 0.01 0.00 0.00 0.00 0.00 0.00 0.02 0.04 0.06 0.11 0.09 0.14 0.27 0.43 0.41 0.26 0.18 0.09 0.04 0.00 0.01 0.06 0.00 0.00 0.00 0.00 0.00
0.71 0.78 0.79 0.78 0.81 0.84 0.88 1.01 1.16 1.67 2.46 2.49 0.73 0.27 0.55 0.47 0.14 0.03 0.01 0.01 0.00 0.01 0.00 0.00 0.00 0.00 0.00 0.02 0.11 0.18 0.14 0.19 0.14 0.12 0.30 0.28 0.30 0.24 0.09 0.04 0.21 0.06 0.00 0.00 0.00 0.00 0.00
0.71 0.70 0.80 0.81 0.89 0.89 0.94 0.92 1.19 1.59 1.72 1.47 0.62 0.39 0.54 0.31 0.13 0.06 0.02 0.01 0.01 0.01 0.01 0.01 0.00 0.01 0.02 0.08 0.28 0.24 0.26 0.17 0.17 0.08 0.04 0.16 0.25 0.36 0.24 0.16 0.11 0.00 0.00 0.00 0.00 0.00 0.00
0.66 0.64 0.76 0.74 0.71 0.74 0.89 1.02 0.94 1.32 1.69 1.52 1.04 0.69 0.82 0.58 0.13 0.04 0.03 0.02 0.02 0.04 0.09 0.06 0.04 0.06 0.12 0.18 0.35 0.31 0.25 0.14 0.12 0.16 0.09 0.07 0.11 0.30 0.31 0.32 0.12 0.00 0.01 0.01 0.01 0.01 0.00
0.57 0.55 0.62 0.70 0.65 0.64 0.63 0.78 0.77 0.90 1.59 2.02 1.61 1.16 1.18 1.05 0.30 0.09 0.08 0.03 0.01 0.04 0.20 0.06 0.15 0.26 0.30 0.45 0.31 0.17 0.07 0.08 0.14 0.20 0.23 0.33 0.26 0.21 0.19 0.25 0.07 0.01 0.03 0.05 0.19 0.14 0.02
0.50 0.47 0.57 0.56 0.60 0.60 0.49 0.61 0.54 0.60 1.05 2.08 2.18 1.43 1.40 1.21 0.37 0.27 0.13 0.06 0.03 0.06 0.23 0.19 0.22 0.26 0.39 0.47 0.26 0.12 0.04 0.02 0.01 0.05 0.21 0.28 0.43 0.38 0.39 0.30 0.10 0.06 0.13 0.25 0.21 0.10 0.05
0.48 0.45 0.50 0.49 0.49 0.60 0.51 0.57 0.48 0.43 0.70 1.58 2.64 2.11 1.26 1.65 0.83 0.29 0.23 0.09 0.02 0.01 0.09 0.25 0.12 0.06 0.12 0.18 0.15 0.12 0.09 0.05 0.01 0.01 0.03 0.19 0.22 0.24 0.26 0.21 0.09 0.03 0.06 0.13 0.11 0.11 0.05